Time,TemperatureF,DewpointF,PressureIn,WindDirection,WindDirectionDegrees,WindSpeedMPH,WindSpeedGustMPH,Humidity,HourlyPrecipIn,Conditions,Clouds,dailyrainin,SoftwareType,DateUTC
2013-06-10 00:00:00,62.3,55.4,30.12,WNW,292,0.0,0.0,78,0.00,,SKC,0.00,VWS V14.01,2013-06-10 04:00:00,
2013-06-10 00:01:00,62.3,55.4,30.12,WNW,292,0.0,0.0,78,0.00,,SKC,0.00,VWS V14.01,2013-06-10 04:01:00,
2013-06-10 00:06:00,62.1,55.5,30.12,WNW,292,0.0,0.0,79,0.00,,SKC,0.00,VWS V14.01,2013-06-10 04:06:00,
2013-06-10 00:07:00,62.1,55.5,30.12,WNW,292,0.0,0.0,79,0.00,,SKC,0.00,VWS V14.01,2013-06-10 04:07:00,
2013-06-10 00:11:00,62.0,55.4,30.12,WNW,291,0.0,0.0,79,0.00,,SKC,0.00,VWS V14.01,2013-06-10 04:11:00,
2013-06-10 00:12:00,62.0,55.4,30.12,WNW,292,0.0,0.0,79,0.00,,SKC,0.00,VWS V14.01,2013-06-10 04:12:00,
2013-06-10 00:13:00,61.8,55.2,30.12,WNW,292,0.0,0.0,79,0.00,,SKC,0.00,VWS V14.01,2013-06-10 04:13:00,
2013-06-10 00:16:00,61.8,55.2,30.12,WNW,294,0.0,0.0,79,0.00,,SKC,0.00,VWS V14.01,2013-06-10 04:16:00,
2013-06-10 00:17:00,61.6,55.0,30.12,WNW,294,0.0,0.0,79,0.00,,SKC,0.00,VWS V14.01,2013-06-10 04:17:00,
2013-06-10 00:18:00,61.6,55.0,30.12,WNW,292,0.0,0.0,79,0.00,,SKC,0.00,VWS V14.01,2013-06-10 04:18:00,
2013-06-10 00:19:00,61.6,55.4,30.12,WNW,292,0.0,0.0,80,0.00,,SKC,0.00,VWS V14.01,2013-06-10 04:19:00,
2013-06-10 00:22:00,61.5,55.6,30.12,WNW,292,0.0,0.0,81,0.00,,SKC,0.00,VWS V14.01,2013-06-10 04:22:00,
2013-06-10 00:23:00,61.5,55.6,30.12,WNW,292,0.0,0.0,81,0.00,,SKC,0.00,VWS V14.01,2013-06-10 04:23:00,
2013-06-10 00:24:00,61.5,55.6,30.12,WNW,292,0.0,0.0,81,0.00,,SKC,0.00,VWS V14.01,2013-06-10 04:24:00,
2013-06-10 00:27:00,61.3,55.4,30.12,WNW,292,0.0,0.0,81,0.00,,SKC,0.00,VWS V14.01,2013-06-10 04:27:00,
2013-06-10 00:28:00,61.2,55.3,30.12,WNW,291,0.0,0.0,81,0.00,,SKC,0.00,VWS V14.01,2013-06-10 04:28:00,
2013-06-10 00:29:00,61.2,55.3,30.12,WNW,292,0.0,0.0,81,0.00,,SKC,0.00,VWS V14.01,2013-06-10 04:29:00,
2013-06-10 00:33:00,61.0,55.1,30.12,WNW,292,0.0,0.0,81,0.00,,SKC,0.00,VWS V14.01,2013-06-10 04:33:00,
2013-06-10 00:35:00,61.0,55.1,30.12,WNW,292,0.0,0.0,81,0.00,,SKC,0.00,VWS V14.01,2013-06-10 04:35:00,
2013-06-10 00:38:00,60.9,55.0,30.12,WNW,294,0.0,0.0,81,0.00,,SKC,0.00,VWS V14.01,2013-06-10 04:38:00,
2013-06-10 00:39:00,60.7,55.2,30.12,WNW,292,0.0,0.0,82,0.00,,SKC,0.00,VWS V14.01,2013-06-10 04:39:00,
2013-06-10 00:40:00,60.7,55.2,30.12,WNW,294,0.0,0.0,82,0.00,,SKC,0.00,VWS V14.01,2013-06-10 04:40:00,
2013-06-10 00:43:00,60.5,55.3,30.12,WNW,294,0.0,0.0,83,0.00,,SKC,0.00,VWS V14.01,2013-06-10 04:43:00,
2013-06-10 00:44:00,60.5,55.3,30.12,WNW,291,0.0,0.0,83,0.00,,SKC,0.00,VWS V14.01,2013-06-10 04:44:00,
2013-06-10 00:45:00,60.5,55.3,30.12,WNW,291,0.0,0.0,83,0.00,,SKC,0.00,VWS V14.01,2013-06-10 04:45:00,
2013-06-10 00:48:00,60.4,55.2,30.12,WNW,292,0.0,0.0,83,0.00,,SKC,0.00,VWS V14.01,2013-06-10 04:48:00,
2013-06-10 00:49:00,60.4,55.5,30.12,WNW,292,0.0,0.0,84,0.00,,SKC,0.00,VWS V14.01,2013-06-10 04:49:00,
2013-06-10 00:50:00,60.2,55.3,30.12,WNW,292,0.0,0.0,84,0.00,,SKC,0.00,VWS V14.01,2013-06-10 04:50:00,
2013-06-10 00:53:00,60.1,55.3,30.12,WNW,292,0.0,0.0,84,0.00,,SKC,0.00,VWS V14.01,2013-06-10 04:53:00,
2013-06-10 00:54:00,60.1,55.3,30.12,WNW,291,0.0,0.0,84,0.00,,SKC,0.00,VWS V14.01,2013-06-10 04:54:00,
2013-06-10 00:55:00,60.1,55.3,30.12,WNW,292,0.0,0.0,84,0.00,,SKC,0.00,VWS V14.01,2013-06-10 04:55:00,
2013-06-10 00:58:00,59.9,55.1,30.12,WNW,289,0.0,0.0,84,0.00,,SKC,0.00,VWS V14.01,2013-06-10 04:58:00,
2013-06-10 00:59:00,59.9,55.1,30.12,WNW,291,0.0,0.0,84,0.00,,SKC,0.00,VWS V14.01,2013-06-10 04:59:00,
2013-06-10 01:01:00,59.9,55.4,30.12,WNW,291,0.0,0.0,85,0.00,,SKC,0.00,VWS V14.01,2013-06-10 05:01:00,
2013-06-10 01:02:00,59.9,55.4,30.12,WNW,289,0.0,0.0,85,0.00,,SKC,0.00,VWS V14.01,2013-06-10 05:02:00,
2013-06-10 01:04:00,59.8,55.3,30.12,WNW,292,0.0,0.0,85,0.00,,SKC,0.00,VWS V14.01,2013-06-10 05:04:00,
2013-06-10 01:05:00,59.8,55.3,30.12,WNW,291,0.0,0.0,85,0.00,,SKC,0.00,VWS V14.01,2013-06-10 05:05:00,
2013-06-10 01:06:00,59.6,55.1,30.12,WNW,291,0.0,0.0,85,0.00,,SKC,0.00,VWS V14.01,2013-06-10 05:06:00,
2013-06-10 01:07:00,59.6,55.1,30.12,WNW,302,0.0,0.0,85,0.00,,SKC,0.00,VWS V14.01,2013-06-10 05:07:00,
2013-06-10 01:09:00,59.6,55.1,30.12,WNW,291,0.0,0.0,85,0.00,,SKC,0.00,VWS V14.01,2013-06-10 05:09:00,
2013-06-10 01:10:00,59.6,55.1,30.12,WNW,292,0.0,0.0,85,0.00,,SKC,0.00,VWS V14.01,2013-06-10 05:10:00,
2013-06-10 01:12:00,59.6,55.1,30.12,WNW,294,0.0,0.0,85,0.00,,SKC,0.00,VWS V14.01,2013-06-10 05:12:00,
2013-06-10 01:15:00,59.5,55.0,30.12,WNW,291,0.0,0.0,85,0.00,,SKC,0.00,VWS V14.01,2013-06-10 05:15:00,
2013-06-10 01:17:00,59.5,55.3,30.12,WNW,291,0.0,0.0,86,0.00,,SKC,0.00,VWS V14.01,2013-06-10 05:17:00,
2013-06-10 01:18:00,59.5,55.3,30.12,WNW,291,0.0,0.0,86,0.00,,SKC,0.00,VWS V14.01,2013-06-10 05:18:00,
2013-06-10 01:20:00,59.5,55.3,30.12,WNW,292,0.0,0.0,86,0.00,,SKC,0.00,VWS V14.01,2013-06-10 05:20:00,
2013-06-10 01:23:00,59.5,55.6,30.12,WNW,289,0.0,0.0,87,0.00,,SKC,0.00,VWS V14.01,2013-06-10 05:23:00,
2013-06-10 01:25:00,59.5,55.6,30.12,WNW,292,0.0,0.0,87,0.00,,SKC,0.00,VWS V14.01,2013-06-10 05:25:00,
2013-06-10 01:26:00,59.5,56.0,30.12,WNW,292,0.0,0.0,88,0.00,,SKC,0.00,VWS V14.01,2013-06-10 05:26:00,
2013-06-10 01:28:00,59.5,56.0,30.12,WNW,292,0.0,0.0,88,0.00,,SKC,0.00,VWS V14.01,2013-06-10 05:28:00,
2013-06-10 01:29:00,59.5,56.0,30.12,WNW,292,0.0,0.0,88,0.00,,SKC,0.00,VWS V14.01,2013-06-10 05:29:00,
2013-06-10 01:30:00,59.5,56.0,30.12,WNW,292,0.0,0.0,88,0.00,,SKC,0.00,VWS V14.01,2013-06-10 05:30:00,
2013-06-10 01:31:00,59.5,56.0,30.12,WNW,292,0.0,0.0,88,0.00,,SKC,0.00,VWS V14.01,2013-06-10 05:31:00,
2013-06-10 01:33:00,59.3,55.8,30.12,WNW,289,0.0,0.0,88,0.00,,SKC,0.00,VWS V14.01,2013-06-10 05:33:00,
2013-06-10 01:35:00,59.3,55.8,30.12,WNW,292,0.0,0.0,88,0.00,,SKC,0.00,VWS V14.01,2013-06-10 05:35:00,
2013-06-10 01:36:00,59.3,55.8,30.12,WNW,291,0.0,0.0,88,0.00,,SKC,0.00,VWS V14.01,2013-06-10 05:36:00,
2013-06-10 01:37:00,59.3,55.8,30.12,WNW,292,0.0,0.0,88,0.00,,SKC,0.00,VWS V14.01,2013-06-10 05:37:00,
2013-06-10 01:38:00,59.3,55.8,30.12,WNW,292,0.0,0.0,88,0.00,,SKC,0.00,VWS V14.01,2013-06-10 05:38:00,
2013-06-10 01:40:00,59.2,55.7,30.12,WNW,292,0.0,0.0,88,0.00,,SKC,0.00,VWS V14.01,2013-06-10 05:40:00,
2013-06-10 01:41:00,59.2,55.7,30.12,WNW,292,0.0,0.0,88,0.00,,SKC,0.00,VWS V14.01,2013-06-10 05:41:00,
2013-06-10 01:42:00,59.2,55.7,30.12,WNW,291,0.0,0.0,88,0.00,,SKC,0.00,VWS V14.01,2013-06-10 05:42:00,
2013-06-10 01:43:00,59.2,55.7,30.12,WNW,292,0.0,0.0,88,0.00,,SKC,0.00,VWS V14.01,2013-06-10 05:43:00,
2013-06-10 01:46:00,59.0,55.8,30.12,WNW,292,0.0,0.0,89,0.00,,SKC,0.00,VWS V14.01,2013-06-10 05:46:00,
2013-06-10 01:47:00,59.0,55.8,30.12,WNW,294,0.0,0.0,89,0.00,,SKC,0.00,VWS V14.01,2013-06-10 05:47:00,
2013-06-10 01:49:00,59.0,55.8,30.12,WNW,292,0.0,0.0,89,0.00,,SKC,0.00,VWS V14.01,2013-06-10 05:49:00,
2013-06-10 01:51:00,59.0,55.8,30.12,WNW,292,0.0,0.0,89,0.00,,SKC,0.00,VWS V14.01,2013-06-10 05:51:00,
2013-06-10 01:52:00,59.0,55.8,30.12,WNW,291,0.0,0.0,89,0.00,,SKC,0.00,VWS V14.01,2013-06-10 05:52:00,
2013-06-10 01:53:00,58.9,55.7,30.12,WNW,292,0.0,0.0,89,0.00,,SKC,0.00,VWS V14.01,2013-06-10 05:53:00,
2013-06-10 01:54:00,58.9,55.7,30.12,WNW,292,0.0,0.0,89,0.00,,SKC,0.00,VWS V14.01,2013-06-10 05:54:00,
2013-06-10 01:56:00,58.9,55.7,30.12,WNW,292,0.0,0.0,89,0.00,,SKC,0.00,VWS V14.01,2013-06-10 05:56:00,
2013-06-10 01:57:00,58.7,55.5,30.12,WNW,292,0.0,0.0,89,0.00,,SKC,0.00,VWS V14.01,2013-06-10 05:57:00,
2013-06-10 01:58:00,58.7,55.5,30.12,WNW,298,0.0,0.0,89,0.00,,SKC,0.00,VWS V14.01,2013-06-10 05:58:00,
2013-06-10 02:00:00,58.7,55.5,30.12,WNW,292,0.0,0.0,89,0.00,,SKC,0.00,VWS V14.01,2013-06-10 06:00:00,
2013-06-10 02:02:00,58.6,55.4,30.12,WNW,291,0.0,0.0,89,0.00,,SKC,0.00,VWS V14.01,2013-06-10 06:02:00,
2013-06-10 02:03:00,58.6,55.4,30.12,WNW,291,0.0,0.0,89,0.00,,SKC,0.00,VWS V14.01,2013-06-10 06:03:00,
2013-06-10 02:06:00,58.4,55.2,30.12,WNW,291,0.0,0.0,89,0.00,,SKC,0.00,VWS V14.01,2013-06-10 06:06:00,
2013-06-10 02:07:00,58.4,55.2,30.12,WNW,291,0.0,0.0,89,0.00,,SKC,0.00,VWS V14.01,2013-06-10 06:07:00,
2013-06-10 02:08:00,58.4,55.2,30.12,WNW,291,0.0,0.0,89,0.00,,SKC,0.00,VWS V14.01,2013-06-10 06:08:00,
2013-06-10 02:11:00,58.3,55.1,30.12,WNW,292,0.0,0.0,89,0.00,,SKC,0.00,VWS V14.01,2013-06-10 06:11:00,
2013-06-10 02:12:00,58.3,55.1,30.12,WNW,292,0.0,0.0,89,0.00,,SKC,0.00,VWS V14.01,2013-06-10 06:12:00,
2013-06-10 02:13:00,58.3,55.1,30.12,WNW,291,0.0,0.0,89,0.00,,SKC,0.00,VWS V14.01,2013-06-10 06:13:00,
2013-06-10 02:14:00,58.3,55.1,30.12,WNW,291,0.0,0.0,89,0.00,,SKC,0.00,VWS V14.01,2013-06-10 06:14:00,
2013-06-10 02:17:00,58.1,54.9,30.12,WNW,291,0.0,0.0,89,0.00,,SKC,0.00,VWS V14.01,2013-06-10 06:17:00,
2013-06-10 02:18:00,58.1,54.9,30.12,WNW,291,0.0,0.0,89,0.00,,SKC,0.00,VWS V14.01,2013-06-10 06:18:00,
2013-06-10 02:19:00,58.1,54.9,30.12,WNW,291,0.0,0.0,89,0.00,,SKC,0.00,VWS V14.01,2013-06-10 06:19:00,
2013-06-10 02:23:00,58.0,54.8,30.12,WNW,291,0.0,0.0,89,0.00,,SKC,0.00,VWS V14.01,2013-06-10 06:23:00,
2013-06-10 02:24:00,57.8,54.6,30.12,WNW,291,0.0,0.0,89,0.00,,SKC,0.00,VWS V14.01,2013-06-10 06:24:00,
2013-06-10 02:28:00,57.6,54.4,30.12,WNW,292,0.0,0.0,89,0.00,,SKC,0.00,VWS V14.01,2013-06-10 06:28:00,
2013-06-10 02:29:00,57.6,54.4,30.12,WNW,294,0.0,0.0,89,0.00,,SKC,0.00,VWS V14.01,2013-06-10 06:29:00,
2013-06-10 02:30:00,57.6,54.4,30.12,WNW,292,0.0,0.0,89,0.00,,SKC,0.00,VWS V14.01,2013-06-10 06:30:00,
2013-06-10 02:33:00,57.6,54.4,30.12,WNW,292,0.0,0.0,89,0.00,,SKC,0.00,VWS V14.01,2013-06-10 06:33:00,
2013-06-10 02:34:00,57.5,54.3,30.12,WNW,292,0.0,0.0,89,0.00,,SKC,0.00,VWS V14.01,2013-06-10 06:34:00,
2013-06-10 02:35:00,57.5,54.3,30.12,WNW,292,0.0,0.0,89,0.00,,SKC,0.00,VWS V14.01,2013-06-10 06:35:00,
2013-06-10 02:36:00,57.5,54.3,30.12,WNW,292,0.0,0.0,89,0.00,,SKC,0.00,VWS V14.01,2013-06-10 06:36:00,
2013-06-10 02:39:00,57.5,54.3,30.12,WNW,294,0.0,0.0,89,0.00,,SKC,0.00,VWS V14.01,2013-06-10 06:39:00,
2013-06-10 02:40:00,57.5,54.3,30.12,WNW,294,0.0,0.0,89,0.00,,SKC,0.00,VWS V14.01,2013-06-10 06:40:00,
2013-06-10 02:42:00,57.5,54.3,30.12,WNW,294,0.0,0.0,89,0.00,,SKC,0.00,VWS V14.01,2013-06-10 06:42:00,
2013-06-10 02:44:00,57.5,54.3,30.13,WNW,292,0.0,0.0,89,0.00,,SKC,0.00,VWS V14.01,2013-06-10 06:44:00,
2013-06-10 02:45:00,57.5,54.3,30.13,WNW,294,0.0,0.0,89,0.00,,SKC,0.00,VWS V14.01,2013-06-10 06:45:00,
2013-06-10 02:47:00,57.5,54.6,30.13,WNW,295,0.0,0.0,90,0.00,,SKC,0.00,VWS V14.01,2013-06-10 06:47:00,
2013-06-10 02:50:00,57.3,54.4,30.13,WNW,292,0.0,0.0,90,0.00,,SKC,0.00,VWS V14.01,2013-06-10 06:50:00,
2013-06-10 02:52:00,57.3,54.4,30.13,WNW,292,0.0,0.0,90,0.00,,SKC,0.00,VWS V14.01,2013-06-10 06:52:00,
2013-06-10 02:53:00,57.3,54.4,30.13,WNW,294,0.0,0.0,90,0.00,,SKC,0.00,VWS V14.01,2013-06-10 06:53:00,
2013-06-10 02:55:00,57.3,54.4,30.13,WNW,292,0.0,0.0,90,0.00,,SKC,0.00,VWS V14.01,2013-06-10 06:55:00,
2013-06-10 02:56:00,57.3,54.4,30.13,WNW,294,0.0,0.0,90,0.00,,SKC,0.00,VWS V14.01,2013-06-10 06:56:00,
2013-06-10 02:57:00,57.3,54.4,30.13,WNW,295,0.0,0.0,90,0.00,,SKC,0.00,VWS V14.01,2013-06-10 06:57:00,
2013-06-10 02:58:00,57.3,54.4,30.13,WNW,295,0.0,0.0,90,0.00,,SKC,0.00,VWS V14.01,2013-06-10 06:58:00,
2013-06-10 03:00:00,57.3,54.7,30.13,WNW,295,0.0,0.0,91,0.00,,SKC,0.00,VWS V14.01,2013-06-10 07:00:00,
2013-06-10 03:01:00,57.3,54.7,30.13,WNW,292,0.0,0.0,91,0.00,,SKC,0.00,VWS V14.01,2013-06-10 07:01:00,
2013-06-10 03:02:00,57.3,54.7,30.13,WNW,295,0.0,0.0,91,0.00,,SKC,0.00,VWS V14.01,2013-06-10 07:02:00,
2013-06-10 03:03:00,57.3,54.7,30.13,WNW,292,0.0,0.0,91,0.00,,SKC,0.00,VWS V14.01,2013-06-10 07:03:00,
2013-06-10 03:05:00,57.3,54.7,30.13,WNW,296,0.0,0.0,91,0.00,,SKC,0.00,VWS V14.01,2013-06-10 07:05:00,
2013-06-10 03:06:00,57.3,54.7,30.13,WNW,296,0.0,0.0,91,0.00,,SKC,0.00,VWS V14.01,2013-06-10 07:06:00,
2013-06-10 03:07:00,57.3,54.7,30.13,WNW,294,0.0,0.0,91,0.00,,SKC,0.00,VWS V14.01,2013-06-10 07:07:00,
2013-06-10 03:08:00,57.3,54.7,30.13,WNW,292,0.0,0.0,91,0.00,,SKC,0.00,VWS V14.01,2013-06-10 07:08:00,
2013-06-10 03:10:00,57.3,54.7,30.13,WNW,294,0.0,0.0,91,0.00,,SKC,0.00,VWS V14.01,2013-06-10 07:10:00,
2013-06-10 03:11:00,57.3,54.7,30.13,WNW,294,0.0,0.0,91,0.00,,SKC,0.00,VWS V14.01,2013-06-10 07:11:00,
2013-06-10 03:13:00,57.3,54.7,30.13,WNW,292,0.0,0.0,91,0.00,,SKC,0.00,VWS V14.01,2013-06-10 07:13:00,
2013-06-10 03:15:00,57.2,54.6,30.13,WNW,294,0.0,0.0,91,0.00,,SKC,0.00,VWS V14.01,2013-06-10 07:15:00,
2013-06-10 03:16:00,57.2,54.6,30.13,WNW,292,0.0,0.0,91,0.00,,SKC,0.00,VWS V14.01,2013-06-10 07:16:00,
2013-06-10 03:18:00,57.2,54.6,30.13,WNW,292,0.0,0.0,91,0.00,,SKC,0.00,VWS V14.01,2013-06-10 07:18:00,
2013-06-10 03:19:00,57.0,54.4,30.13,WNW,295,0.0,0.0,91,0.00,,SKC,0.00,VWS V14.01,2013-06-10 07:19:00,
2013-06-10 03:21:00,57.0,54.4,30.13,WNW,292,0.0,0.0,91,0.00,,SKC,0.00,VWS V14.01,2013-06-10 07:21:00,
2013-06-10 03:23:00,56.9,54.3,30.13,WNW,292,0.0,0.0,91,0.00,,SKC,0.00,VWS V14.01,2013-06-10 07:23:00,
2013-06-10 03:24:00,56.9,54.3,30.13,WNW,294,0.0,0.0,91,0.00,,SKC,0.00,VWS V14.01,2013-06-10 07:24:00,
2013-06-10 03:26:00,56.7,54.1,30.13,WNW,294,0.0,0.0,91,0.00,,SKC,0.00,VWS V14.01,2013-06-10 07:26:00,
2013-06-10 03:28:00,56.7,54.1,30.13,WNW,292,0.0,0.0,91,0.00,,SKC,0.00,VWS V14.01,2013-06-10 07:28:00,
2013-06-10 03:29:00,56.6,54.0,30.13,WNW,292,0.0,0.0,91,0.00,,SKC,0.00,VWS V14.01,2013-06-10 07:29:00,
2013-06-10 03:31:00,56.6,54.0,30.13,WNW,294,0.0,0.0,91,0.00,,SKC,0.00,VWS V14.01,2013-06-10 07:31:00,
2013-06-10 03:33:00,56.6,54.0,30.13,WNW,294,0.0,0.0,91,0.00,,SKC,0.00,VWS V14.01,2013-06-10 07:33:00,
2013-06-10 03:34:00,56.6,54.0,30.13,WNW,294,0.0,0.0,91,0.00,,SKC,0.00,VWS V14.01,2013-06-10 07:34:00,
2013-06-10 03:37:00,56.5,53.9,30.13,WNW,295,0.0,0.0,91,0.00,,SKC,0.00,VWS V14.01,2013-06-10 07:37:00,
2013-06-10 03:38:00,56.5,53.9,30.13,WNW,294,0.0,0.0,91,0.00,,SKC,0.00,VWS V14.01,2013-06-10 07:38:00,
2013-06-10 03:39:00,56.5,53.9,30.13,WNW,294,0.0,0.0,91,0.00,,SKC,0.00,VWS V14.01,2013-06-10 07:39:00,
2013-06-10 03:40:00,56.5,53.9,30.13,WNW,294,0.0,0.0,91,0.00,,SKC,0.00,VWS V14.01,2013-06-10 07:40:00,
2013-06-10 03:42:00,56.3,53.7,30.13,WNW,292,0.0,0.0,91,0.00,,SKC,0.00,VWS V14.01,2013-06-10 07:42:00,
2013-06-10 03:44:00,56.3,53.7,30.13,WNW,292,0.0,0.0,91,0.00,,SKC,0.00,VWS V14.01,2013-06-10 07:44:00,
2013-06-10 03:45:00,56.3,53.7,30.13,WNW,294,0.0,0.0,91,0.00,,SKC,0.00,VWS V14.01,2013-06-10 07:45:00,
2013-06-10 03:47:00,56.3,53.7,30.13,WNW,294,0.0,0.0,91,0.00,,SKC,0.00,VWS V14.01,2013-06-10 07:47:00,
2013-06-10 03:48:00,56.5,54.2,30.13,WNW,294,0.0,0.0,92,0.00,,SKC,0.00,VWS V14.01,2013-06-10 07:48:00,
2013-06-10 03:49:00,56.5,54.2,30.13,WNW,294,0.0,0.0,92,0.00,,SKC,0.00,VWS V14.01,2013-06-10 07:49:00,
2013-06-10 03:50:00,56.5,54.2,30.13,WNW,292,0.0,0.0,92,0.00,,SKC,0.00,VWS V14.01,2013-06-10 07:50:00,
2013-06-10 03:53:00,56.6,54.3,30.13,WNW,291,0.0,0.0,92,0.00,,SKC,0.00,VWS V14.01,2013-06-10 07:53:00,
2013-06-10 03:54:00,56.6,54.3,30.13,WNW,294,0.0,0.0,92,0.00,,SKC,0.00,VWS V14.01,2013-06-10 07:54:00,
2013-06-10 03:55:00,56.6,54.3,30.13,WNW,294,0.0,0.0,92,0.00,,SKC,0.00,VWS V14.01,2013-06-10 07:55:00,
2013-06-10 03:58:00,56.7,54.4,30.13,WNW,294,0.0,0.0,92,0.00,,SKC,0.00,VWS V14.01,2013-06-10 07:58:00,
2013-06-10 03:59:00,56.7,54.4,30.13,WNW,294,0.0,0.0,92,0.00,,SKC,0.00,VWS V14.01,2013-06-10 07:59:00,
2013-06-10 04:00:00,56.9,54.6,30.12,WNW,294,0.0,0.0,92,0.00,,SKC,0.00,VWS V14.01,2013-06-10 08:00:00,
2013-06-10 04:01:00,56.9,54.6,30.12,WNW,292,0.0,0.0,92,0.00,,SKC,0.00,VWS V14.01,2013-06-10 08:01:00,
2013-06-10 04:03:00,56.9,54.6,30.12,WNW,298,0.0,0.0,92,0.00,,SKC,0.00,VWS V14.01,2013-06-10 08:03:00,
2013-06-10 04:04:00,56.9,54.6,30.12,WNW,295,0.0,0.0,92,0.00,,SKC,0.00,VWS V14.01,2013-06-10 08:04:00,
2013-06-10 04:05:00,56.9,54.6,30.12,WNW,294,0.0,0.0,92,0.00,,SKC,0.00,VWS V14.01,2013-06-10 08:05:00,
2013-06-10 04:06:00,56.9,54.6,30.12,WNW,295,0.0,0.0,92,0.00,,SKC,0.00,VWS V14.01,2013-06-10 08:06:00,
2013-06-10 04:09:00,57.0,54.7,30.12,WNW,295,0.0,0.0,92,0.00,,SKC,0.00,VWS V14.01,2013-06-10 08:09:00,
2013-06-10 04:10:00,57.0,54.7,30.12,WNW,299,0.0,0.0,92,0.00,,SKC,0.00,VWS V14.01,2013-06-10 08:10:00,
2013-06-10 04:12:00,57.0,54.7,30.12,WNW,301,0.0,0.0,92,0.00,,SKC,0.00,VWS V14.01,2013-06-10 08:12:00,
2013-06-10 04:14:00,57.0,55.0,30.12,WNW,301,0.0,0.0,93,0.00,,SKC,0.00,VWS V14.01,2013-06-10 08:14:00,
2013-06-10 04:15:00,57.2,55.2,30.12,WNW,298,0.0,0.0,93,0.00,,SKC,0.00,VWS V14.01,2013-06-10 08:15:00,
2013-06-10 04:16:00,57.2,55.2,30.12,WNW,298,0.0,0.0,93,0.00,,SKC,0.00,VWS V14.01,2013-06-10 08:16:00,
2013-06-10 04:17:00,57.2,55.2,30.12,NW,304,0.0,0.0,93,0.00,,SKC,0.00,VWS V14.01,2013-06-10 08:17:00,
2013-06-10 04:18:00,57.2,55.2,30.12,WNW,296,0.0,0.0,93,0.00,,SKC,0.00,VWS V14.01,2013-06-10 08:18:00,
2013-06-10 04:19:00,57.2,55.2,30.12,WNW,295,0.0,0.0,93,0.00,,SKC,0.00,VWS V14.01,2013-06-10 08:19:00,
2013-06-10 04:20:00,57.2,55.2,30.12,WNW,302,0.0,0.0,93,0.00,,SKC,0.00,VWS V14.01,2013-06-10 08:20:00,
2013-06-10 04:22:00,57.2,55.2,30.12,WNW,296,0.0,0.0,93,0.00,,SKC,0.00,VWS V14.01,2013-06-10 08:22:00,
2013-06-10 04:23:00,57.2,55.2,30.12,WNW,302,0.0,0.0,93,0.00,,SKC,0.00,VWS V14.01,2013-06-10 08:23:00,
2013-06-10 04:24:00,57.2,55.2,30.12,WNW,295,0.0,0.0,93,0.00,,SKC,0.00,VWS V14.01,2013-06-10 08:24:00,
2013-06-10 04:25:00,57.2,55.2,30.12,WNW,299,0.0,0.0,93,0.00,,SKC,0.00,VWS V14.01,2013-06-10 08:25:00,
2013-06-10 04:27:00,57.2,55.2,30.12,WNW,299,0.0,0.0,93,0.00,,SKC,0.00,VWS V14.01,2013-06-10 08:27:00,
2013-06-10 04:28:00,57.2,55.2,30.12,WNW,299,0.0,0.0,93,0.00,,SKC,0.00,VWS V14.01,2013-06-10 08:28:00,
2013-06-10 04:29:00,57.2,55.2,30.13,WNW,299,0.0,0.0,93,0.00,,SKC,0.00,VWS V14.01,2013-06-10 08:29:00,
2013-06-10 04:30:00,57.2,55.2,30.13,WNW,298,0.0,0.0,93,0.00,,SKC,0.00,VWS V14.01,2013-06-10 08:30:00,
2013-06-10 04:32:00,57.0,55.0,30.13,WNW,298,0.0,0.0,93,0.00,,SKC,0.00,VWS V14.01,2013-06-10 08:32:00,
2013-06-10 04:33:00,57.0,55.0,30.13,WNW,299,0.0,0.0,93,0.00,,SKC,0.00,VWS V14.01,2013-06-10 08:33:00,
2013-06-10 04:34:00,57.0,55.0,30.13,WNW,298,0.0,0.0,93,0.00,,SKC,0.00,VWS V14.01,2013-06-10 08:34:00,
2013-06-10 04:35:00,57.0,55.0,30.13,WNW,299,0.0,0.0,93,0.00,,SKC,0.00,VWS V14.01,2013-06-10 08:35:00,
2013-06-10 04:38:00,56.9,54.9,30.13,WNW,298,0.0,0.0,93,0.00,,SKC,0.00,VWS V14.01,2013-06-10 08:38:00,
2013-06-10 04:39:00,56.7,54.7,30.13,WNW,296,0.0,0.0,93,0.00,,SKC,0.00,VWS V14.01,2013-06-10 08:39:00,
2013-06-10 04:40:00,56.7,54.7,30.13,WNW,298,0.0,0.0,93,0.00,,SKC,0.00,VWS V14.01,2013-06-10 08:40:00,
2013-06-10 04:44:00,56.6,54.6,30.13,WNW,298,0.0,0.0,93,0.00,,SKC,0.00,VWS V14.01,2013-06-10 08:44:00,
2013-06-10 04:45:00,56.6,54.6,30.13,WNW,296,0.0,0.0,93,0.00,,SKC,0.00,VWS V14.01,2013-06-10 08:45:00,
2013-06-10 04:49:00,56.7,54.7,30.13,WNW,296,0.0,0.0,93,0.00,,SKC,0.00,VWS V14.01,2013-06-10 08:49:00,
2013-06-10 04:50:00,56.7,54.7,30.13,WNW,296,0.0,0.0,93,0.00,,SKC,0.00,VWS V14.01,2013-06-10 08:50:00,
2013-06-10 04:51:00,56.7,54.7,30.13,WNW,298,0.0,0.0,93,0.00,,SKC,0.00,VWS V14.01,2013-06-10 08:51:00,
2013-06-10 04:55:00,56.7,54.7,30.13,WNW,295,0.0,0.0,93,0.00,,SKC,0.00,VWS V14.01,2013-06-10 08:55:00,
2013-06-10 04:56:00,56.7,54.7,30.13,WNW,296,0.0,0.0,93,0.00,,SKC,0.00,VWS V14.01,2013-06-10 08:56:00,
2013-06-10 05:01:00,56.7,54.7,30.13,WNW,295,0.0,0.0,93,0.00,,SKC,0.00,VWS V14.01,2013-06-10 09:01:00,
2013-06-10 05:02:00,56.6,54.6,30.13,WNW,296,0.0,0.0,93,0.00,,SKC,0.00,VWS V14.01,2013-06-10 09:02:00,
2013-06-10 05:05:00,56.6,54.6,30.13,WNW,298,0.0,0.0,93,0.00,,SKC,0.00,VWS V14.01,2013-06-10 09:05:00,
2013-06-10 05:06:00,56.6,54.6,30.13,WNW,296,0.0,0.0,93,0.00,,SKC,0.00,VWS V14.01,2013-06-10 09:06:00,
2013-06-10 05:07:00,56.6,54.6,30.13,WNW,298,0.0,0.0,93,0.00,,SKC,0.00,VWS V14.01,2013-06-10 09:07:00,
2013-06-10 05:11:00,56.6,54.6,30.13,WNW,298,0.0,0.0,93,0.00,,SKC,0.00,VWS V14.01,2013-06-10 09:11:00,
2013-06-10 05:12:00,56.6,54.6,30.13,WNW,296,0.0,0.0,93,0.00,,SKC,0.00,VWS V14.01,2013-06-10 09:12:00,
2013-06-10 05:13:00,56.6,54.6,30.13,WNW,298,0.0,0.0,93,0.00,,SKC,0.00,VWS V14.01,2013-06-10 09:13:00,
2013-06-10 05:16:00,56.5,54.5,30.13,WNW,296,0.0,0.0,93,0.00,,SKC,0.00,VWS V14.01,2013-06-10 09:16:00,
2013-06-10 05:17:00,56.5,54.5,30.13,WNW,296,0.0,0.0,93,0.00,,SKC,0.00,VWS V14.01,2013-06-10 09:17:00,
2013-06-10 05:18:00,56.5,54.5,30.13,WNW,298,0.0,0.0,93,0.00,,SKC,0.00,VWS V14.01,2013-06-10 09:18:00,
2013-06-10 05:22:00,56.5,54.5,30.13,WNW,298,0.0,0.0,93,0.00,,SKC,0.00,VWS V14.01,2013-06-10 09:22:00,
2013-06-10 05:24:00,56.5,54.5,30.13,WNW,295,0.0,0.0,93,0.00,,SKC,0.00,VWS V14.01,2013-06-10 09:24:00,
2013-06-10 05:27:00,56.5,54.5,30.13,WNW,298,0.0,0.0,93,0.00,,SKC,0.00,VWS V14.01,2013-06-10 09:27:00,
2013-06-10 05:28:00,56.5,54.5,30.13,WNW,298,0.0,0.0,93,0.00,,SKC,0.00,VWS V14.01,2013-06-10 09:28:00,
2013-06-10 05:29:00,56.5,54.5,30.13,WNW,298,0.0,0.0,93,0.00,,SKC,0.00,VWS V14.01,2013-06-10 09:29:00,
2013-06-10 05:32:00,56.5,54.5,30.13,WNW,298,0.0,0.0,93,0.00,,SKC,0.00,VWS V14.01,2013-06-10 09:32:00,
2013-06-10 05:33:00,56.5,54.5,30.13,WNW,298,0.0,0.0,93,0.00,,SKC,0.00,VWS V14.01,2013-06-10 09:33:00,
2013-06-10 05:35:00,56.5,54.5,30.13,WNW,295,0.0,0.0,93,0.00,,SKC,0.00,VWS V14.01,2013-06-10 09:35:00,
2013-06-10 05:37:00,56.5,54.5,30.13,WNW,296,0.0,0.0,93,0.00,,SKC,0.00,VWS V14.01,2013-06-10 09:37:00,
2013-06-10 05:38:00,56.5,54.5,30.13,WNW,298,0.0,0.0,93,0.00,,SKC,0.00,VWS V14.01,2013-06-10 09:38:00,
2013-06-10 05:39:00,56.5,54.5,30.13,WNW,298,0.0,0.0,93,0.00,,SKC,0.00,VWS V14.01,2013-06-10 09:39:00,
2013-06-10 05:40:00,56.5,54.8,30.13,WNW,299,0.0,0.0,94,0.00,,SKC,0.00,VWS V14.01,2013-06-10 09:40:00,
2013-06-10 05:42:00,56.5,54.8,30.13,WNW,298,0.0,0.0,94,0.00,,SKC,0.00,VWS V14.01,2013-06-10 09:42:00,
2013-06-10 05:43:00,56.5,54.8,30.13,WNW,298,0.0,0.0,94,0.00,,SKC,0.00,VWS V14.01,2013-06-10 09:43:00,
2013-06-10 05:44:00,56.5,54.8,30.13,WNW,298,0.0,0.0,94,0.00,,SKC,0.00,VWS V14.01,2013-06-10 09:44:00,
2013-06-10 05:45:00,56.5,54.8,30.13,WNW,298,0.0,0.0,94,0.00,,SKC,0.00,VWS V14.01,2013-06-10 09:45:00,
2013-06-10 05:48:00,56.6,54.9,30.13,WNW,298,0.0,0.0,94,0.00,,SKC,0.00,VWS V14.01,2013-06-10 09:48:00,
2013-06-10 05:49:00,56.6,54.9,30.13,WNW,299,0.0,0.0,94,0.00,,SKC,0.00,VWS V14.01,2013-06-10 09:49:00,
2013-06-10 05:52:00,56.6,54.9,30.13,NW,306,0.0,0.0,94,0.00,,SKC,0.00,VWS V14.01,2013-06-10 09:52:00,
2013-06-10 05:53:00,56.6,54.9,30.13,WNW,294,0.0,0.0,94,0.00,,SKC,0.00,VWS V14.01,2013-06-10 09:53:00,
2013-06-10 05:55:00,56.7,55.0,30.13,WNW,294,0.0,0.0,94,0.00,,SKC,0.00,VWS V14.01,2013-06-10 09:55:00,
2013-06-10 05:58:00,56.7,55.0,30.13,WNW,298,0.0,0.0,94,0.00,,SKC,0.00,VWS V14.01,2013-06-10 09:58:00,
2013-06-10 05:59:00,56.7,55.0,30.13,WNW,298,0.0,0.0,94,0.00,,SKC,0.00,VWS V14.01,2013-06-10 09:59:00,
2013-06-10 06:00:00,56.9,55.2,30.14,WNW,298,0.0,0.0,94,0.00,,SKC,0.00,VWS V14.01,2013-06-10 10:00:00,
2013-06-10 06:03:00,56.9,55.2,30.14,WNW,296,0.0,0.0,94,0.00,,SKC,0.00,VWS V14.01,2013-06-10 10:03:00,
2013-06-10 06:04:00,56.9,55.2,30.14,WNW,298,0.0,0.0,94,0.00,,SKC,0.00,VWS V14.01,2013-06-10 10:04:00,
2013-06-10 06:05:00,56.9,55.2,30.14,WNW,296,0.0,0.0,94,0.00,,SKC,0.00,VWS V14.01,2013-06-10 10:05:00,
2013-06-10 06:09:00,57.0,55.3,30.14,WNW,296,0.0,0.0,94,0.00,,SKC,0.00,VWS V14.01,2013-06-10 10:09:00,
2013-06-10 06:10:00,57.2,55.5,30.14,WNW,302,0.0,0.0,94,0.00,,SKC,0.00,VWS V14.01,2013-06-10 10:10:00,
2013-06-10 06:14:00,57.3,55.6,30.14,WNW,295,0.0,0.0,94,0.00,,SKC,0.00,VWS V14.01,2013-06-10 10:14:00,
2013-06-10 06:15:00,57.3,55.6,30.14,WNW,295,0.0,0.0,94,0.00,,SKC,0.00,VWS V14.01,2013-06-10 10:15:00,
2013-06-10 06:17:00,57.5,55.8,30.14,WNW,295,0.0,0.0,94,0.00,,SKC,0.00,VWS V14.01,2013-06-10 10:17:00,
2013-06-10 06:19:00,57.5,55.8,30.14,WNW,295,0.0,0.0,94,0.00,,SKC,0.00,VWS V14.01,2013-06-10 10:19:00,
2013-06-10 06:20:00,57.5,55.8,30.14,WNW,296,0.0,0.0,94,0.00,,SKC,0.00,VWS V14.01,2013-06-10 10:20:00,
2013-06-10 06:21:00,57.5,55.8,30.14,WNW,296,0.0,0.0,94,0.00,,SKC,0.00,VWS V14.01,2013-06-10 10:21:00,
2013-06-10 06:22:00,57.8,56.1,30.14,WNW,292,0.0,0.0,94,0.00,,SKC,0.00,VWS V14.01,2013-06-10 10:22:00,
2013-06-10 06:24:00,57.8,56.1,30.14,WNW,289,0.0,0.0,94,0.00,,SKC,0.00,VWS V14.01,2013-06-10 10:24:00,
2013-06-10 06:26:00,57.8,56.1,30.14,WNW,289,0.0,0.0,94,0.00,,SKC,0.00,VWS V14.01,2013-06-10 10:26:00,
2013-06-10 06:27:00,58.1,56.4,30.14,WNW,289,0.0,0.0,94,0.00,,SKC,0.00,VWS V14.01,2013-06-10 10:27:00,
2013-06-10 06:28:00,58.1,56.4,30.14,WNW,289,0.0,0.0,94,0.00,,SKC,0.00,VWS V14.01,2013-06-10 10:28:00,
2013-06-10 06:29:00,58.1,56.4,30.14,WNW,289,0.0,0.0,94,0.00,,SKC,0.00,VWS V14.01,2013-06-10 10:29:00,
2013-06-10 06:30:00,58.1,56.4,30.14,WNW,289,0.0,0.0,94,0.00,,SKC,0.00,VWS V14.01,2013-06-10 10:30:00,
2013-06-10 06:31:00,58.3,56.6,30.14,WNW,296,0.0,0.0,94,0.00,,SKC,0.00,VWS V14.01,2013-06-10 10:31:00,
2013-06-10 06:33:00,58.4,56.7,30.14,WNW,289,0.0,0.0,94,0.00,,SKC,0.00,VWS V14.01,2013-06-10 10:33:00,
2013-06-10 06:34:00,58.6,56.9,30.14,WNW,291,0.0,0.0,94,0.00,,SKC,0.00,VWS V14.01,2013-06-10 10:34:00,
2013-06-10 06:35:00,58.6,56.9,30.14,WNW,292,0.0,0.0,94,0.00,,SKC,0.00,VWS V14.01,2013-06-10 10:35:00,
2013-06-10 06:37:00,58.7,57.0,30.14,WNW,294,0.0,0.0,94,0.00,,SKC,0.00,VWS V14.01,2013-06-10 10:37:00,
2013-06-10 06:39:00,58.9,57.2,30.14,WNW,289,0.0,0.0,94,0.00,,SKC,0.00,VWS V14.01,2013-06-10 10:39:00,
2013-06-10 06:40:00,58.9,57.2,30.14,WNW,292,0.0,0.0,94,0.00,,SKC,0.00,VWS V14.01,2013-06-10 10:40:00,
2013-06-10 06:42:00,59.0,57.3,30.14,WNW,292,0.0,0.0,94,0.00,,SKC,0.00,VWS V14.01,2013-06-10 10:42:00,
2013-06-10 06:44:00,59.0,57.3,30.14,WNW,295,0.0,0.0,94,0.00,,SKC,0.00,VWS V14.01,2013-06-10 10:44:00,
2013-06-10 06:45:00,59.0,57.3,30.14,WNW,295,0.0,0.0,94,0.00,,SKC,0.00,VWS V14.01,2013-06-10 10:45:00,
2013-06-10 06:47:00,59.0,57.3,30.14,WNW,294,0.0,0.0,94,0.00,,SKC,0.00,VWS V14.01,2013-06-10 10:47:00,
2013-06-10 06:49:00,59.2,57.5,30.14,WNW,291,0.0,0.0,94,0.00,,SKC,0.00,VWS V14.01,2013-06-10 10:49:00,
2013-06-10 06:50:00,59.2,57.2,30.14,WNW,291,0.0,0.0,93,0.00,,SKC,0.00,VWS V14.01,2013-06-10 10:50:00,
2013-06-10 06:51:00,59.2,57.2,30.14,WNW,291,0.0,0.0,93,0.00,,SKC,0.00,VWS V14.01,2013-06-10 10:51:00,
2013-06-10 06:52:00,59.2,57.2,30.14,WNW,292,0.0,0.0,93,0.00,,SKC,0.00,VWS V14.01,2013-06-10 10:52:00,
2013-06-10 06:55:00,59.3,57.3,30.14,WNW,289,0.0,0.0,93,0.00,,SKC,0.00,VWS V14.01,2013-06-10 10:55:00,
2013-06-10 06:56:00,59.3,57.3,30.14,WNW,291,0.0,0.0,93,0.00,,SKC,0.00,VWS V14.01,2013-06-10 10:56:00,
2013-06-10 06:57:00,59.3,57.3,30.14,WNW,291,0.0,0.0,93,0.00,,SKC,0.00,VWS V14.01,2013-06-10 10:57:00,
2013-06-10 06:58:00,59.5,57.5,30.14,WNW,291,0.0,0.0,93,0.00,,SKC,0.00,VWS V14.01,2013-06-10 10:58:00,
2013-06-10 07:00:00,59.6,57.6,30.15,WNW,292,0.0,0.0,93,0.00,,SKC,0.00,VWS V14.01,2013-06-10 11:00:00,
2013-06-10 07:02:00,59.6,57.6,30.15,WNW,292,0.0,0.0,93,0.00,,SKC,0.00,VWS V14.01,2013-06-10 11:02:00,
2013-06-10 07:03:00,59.8,57.8,30.15,WNW,294,0.0,0.0,93,0.00,,SKC,0.00,VWS V14.01,2013-06-10 11:03:00,
2013-06-10 07:04:00,59.8,57.8,30.15,WNW,295,0.0,0.0,93,0.00,,SKC,0.00,VWS V14.01,2013-06-10 11:04:00,
2013-06-10 07:06:00,59.9,57.9,30.15,WNW,294,0.0,0.0,93,0.00,,SKC,0.00,VWS V14.01,2013-06-10 11:06:00,
2013-06-10 07:07:00,59.9,57.9,30.15,WNW,294,0.0,0.0,93,0.00,,SKC,0.00,VWS V14.01,2013-06-10 11:07:00,
2013-06-10 07:08:00,59.9,57.9,30.15,WNW,294,0.0,0.0,93,0.00,,SKC,0.00,VWS V14.01,2013-06-10 11:08:00,
2013-06-10 07:10:00,60.1,57.8,30.15,WNW,294,0.0,0.0,92,0.00,,SKC,0.00,VWS V14.01,2013-06-10 11:10:00,
2013-06-10 07:12:00,60.2,57.9,30.15,WNW,294,0.0,0.0,92,0.00,,SKC,0.00,VWS V14.01,2013-06-10 11:12:00,
2013-06-10 07:13:00,60.2,57.9,30.15,WNW,292,0.0,0.0,92,0.00,,SKC,0.00,VWS V14.01,2013-06-10 11:13:00,
2013-06-10 07:14:00,60.4,58.1,30.15,WNW,295,0.0,0.0,92,0.00,,SKC,0.00,VWS V14.01,2013-06-10 11:14:00,
2013-06-10 07:15:00,60.4,58.1,30.15,WNW,292,0.0,0.0,92,0.00,,SKC,0.00,VWS V14.01,2013-06-10 11:15:00,
2013-06-10 07:17:00,60.5,57.9,30.15,WNW,292,0.0,0.0,91,0.00,,SKC,0.00,VWS V14.01,2013-06-10 11:17:00,
2013-06-10 07:18:00,60.5,57.9,30.15,WNW,292,0.0,0.0,91,0.00,,SKC,0.00,VWS V14.01,2013-06-10 11:18:00,
2013-06-10 07:20:00,60.5,57.6,30.15,WNW,292,0.0,0.0,90,0.00,,SKC,0.00,VWS V14.01,2013-06-10 11:20:00,
2013-06-10 07:22:00,60.7,57.4,30.15,WNW,292,0.0,0.0,89,0.00,,SKC,0.00,VWS V14.01,2013-06-10 11:22:00,
2013-06-10 07:23:00,60.9,57.6,30.15,WNW,291,0.0,0.0,89,0.00,,SKC,0.00,VWS V14.01,2013-06-10 11:23:00,
2013-06-10 07:26:00,61.0,57.4,30.15,WNW,292,0.0,0.0,88,0.00,,SKC,0.00,VWS V14.01,2013-06-10 11:26:00,
2013-06-10 07:27:00,61.2,57.6,30.15,WNW,291,0.0,0.0,88,0.00,,SKC,0.00,VWS V14.01,2013-06-10 11:27:00,
2013-06-10 07:28:00,61.2,57.6,30.15,WNW,292,0.0,0.0,88,0.00,,SKC,0.00,VWS V14.01,2013-06-10 11:28:00,
2013-06-10 07:32:00,61.5,56.6,30.16,WNW,292,0.0,0.0,84,0.00,,SKC,0.00,VWS V14.01,2013-06-10 11:32:00,
2013-06-10 07:33:00,61.5,56.6,30.16,WNW,289,0.0,0.0,84,0.00,,SKC,0.00,VWS V14.01,2013-06-10 11:33:00,
2013-06-10 07:34:00,61.6,56.7,30.16,WNW,292,0.0,0.0,84,0.00,,SKC,0.00,VWS V14.01,2013-06-10 11:34:00,
2013-06-10 07:37:00,61.8,56.6,30.16,NW,304,0.0,0.0,83,0.00,,SKC,0.00,VWS V14.01,2013-06-10 11:37:00,
2013-06-10 07:38:00,62.0,56.8,30.16,WNW,302,0.0,0.0,83,0.00,,SKC,0.00,VWS V14.01,2013-06-10 11:38:00,
2013-06-10 07:39:00,62.0,56.1,30.16,NW,304,0.0,0.0,81,0.00,,SKC,0.00,VWS V14.01,2013-06-10 11:39:00,
2013-06-10 07:42:00,62.3,56.4,30.16,NW,304,0.0,0.0,81,0.00,,SKC,0.00,VWS V14.01,2013-06-10 11:42:00,
2013-06-10 07:43:00,62.4,56.5,30.16,NW,304,0.0,0.0,81,0.00,,SKC,0.00,VWS V14.01,2013-06-10 11:43:00,
2013-06-10 07:44:00,62.6,56.7,30.15,NW,306,0.0,0.0,81,0.00,,SKC,0.00,VWS V14.01,2013-06-10 11:44:00,
2013-06-10 07:45:00,62.6,56.7,30.15,NW,305,0.0,0.0,81,0.00,,SKC,0.00,VWS V14.01,2013-06-10 11:45:00,
2013-06-10 07:48:00,62.9,56.6,30.15,NW,304,1.0,1.0,80,0.00,,SKC,0.00,VWS V14.01,2013-06-10 11:48:00,
2013-06-10 07:50:00,63.2,56.6,30.15,NNW,342,2.0,2.0,79,0.00,,SKC,0.00,VWS V14.01,2013-06-10 11:50:00,
2013-06-10 07:53:00,63.4,56.4,30.15,North,357,1.0,3.0,78,0.00,,SKC,0.00,VWS V14.01,2013-06-10 11:53:00,
2013-06-10 07:55:00,63.7,56.7,30.15,SE,144,0.0,0.0,78,0.00,,SKC,0.00,VWS V14.01,2013-06-10 11:55:00,
2013-06-10 07:58:00,64.0,57.0,30.15,SSE,158,0.0,2.0,78,0.00,,SKC,0.00,VWS V14.01,2013-06-10 11:58:00,
2013-06-10 07:59:00,64.2,56.8,30.15,SSE,158,0.0,2.0,77,0.00,,SKC,0.00,VWS V14.01,2013-06-10 11:59:00,
2013-06-10 08:00:00,64.3,57.0,30.15,South,169,2.0,2.0,77,0.00,,SKC,0.00,VWS V14.01,2013-06-10 12:00:00,
2013-06-10 08:04:00,64.8,57.1,30.15,South,179,0.0,2.0,76,0.00,,SKC,0.00,VWS V14.01,2013-06-10 12:04:00,
2013-06-10 08:05:00,65.0,57.3,30.15,South,181,0.0,0.0,76,0.00,,SKC,0.00,VWS V14.01,2013-06-10 12:05:00,
2013-06-10 08:06:00,65.0,56.9,30.15,South,181,2.0,2.0,75,0.00,,SKC,0.00,VWS V14.01,2013-06-10 12:06:00,
2013-06-10 08:09:00,65.3,56.0,30.15,SW,219,1.0,5.0,72,0.00,,SKC,0.00,VWS V14.01,2013-06-10 12:09:00,
2013-06-10 08:10:00,65.3,55.7,30.15,SW,217,1.0,2.0,71,0.00,,SKC,0.00,VWS V14.01,2013-06-10 12:10:00,
2013-06-10 08:11:00,65.3,55.7,30.15,SW,215,2.0,2.0,71,0.00,,SKC,0.00,VWS V14.01,2013-06-10 12:11:00,
2013-06-10 08:12:00,65.5,55.9,30.15,South,186,2.0,2.0,71,0.00,,SKC,0.00,VWS V14.01,2013-06-10 12:12:00,
2013-06-10 08:15:00,65.8,56.5,30.15,South,181,5.0,6.0,72,0.00,,SKC,0.00,VWS V14.01,2013-06-10 12:15:00,
2013-06-10 08:16:00,65.8,55.8,30.15,South,175,1.0,5.0,70,0.00,,SKC,0.00,VWS V14.01,2013-06-10 12:16:00,
2013-06-10 08:17:00,65.8,56.2,30.15,SSW,196,3.0,5.0,71,0.00,,SKC,0.00,VWS V14.01,2013-06-10 12:17:00,
2013-06-10 08:20:00,66.0,56.3,30.15,SW,215,3.0,3.0,71,0.00,,SKC,0.00,VWS V14.01,2013-06-10 12:20:00,
2013-06-10 08:21:00,66.0,56.3,30.15,SW,215,1.0,3.0,71,0.00,,SKC,0.00,VWS V14.01,2013-06-10 12:21:00,
2013-06-10 08:22:00,66.0,56.0,30.15,South,185,5.0,5.0,70,0.00,,SKC,0.00,VWS V14.01,2013-06-10 12:22:00,
2013-06-10 08:25:00,66.3,56.2,30.15,SSW,195,0.0,0.0,70,0.00,,SKC,0.00,VWS V14.01,2013-06-10 12:25:00,
2013-06-10 08:27:00,66.3,55.8,30.15,SSW,213,4.0,4.0,69,0.00,,SKC,0.00,VWS V14.01,2013-06-10 12:27:00,
2013-06-10 08:30:00,66.8,56.3,30.15,South,172,4.0,4.0,69,0.00,,SKC,0.00,VWS V14.01,2013-06-10 12:30:00,
2013-06-10 08:31:00,66.8,56.3,30.15,South,178,2.0,4.0,69,0.00,,SKC,0.00,VWS V14.01,2013-06-10 12:31:00,
2013-06-10 08:32:00,66.8,56.3,30.15,SSW,193,2.0,4.0,69,0.00,,SKC,0.00,VWS V14.01,2013-06-10 12:32:00,
2013-06-10 08:33:00,66.9,56.0,30.15,SSW,206,2.0,4.0,68,0.00,,SKC,0.00,VWS V14.01,2013-06-10 12:33:00,
2013-06-10 08:36:00,67.1,55.8,30.15,SSW,210,2.0,4.0,67,0.00,,SKC,0.00,VWS V14.01,2013-06-10 12:36:00,
2013-06-10 08:38:00,67.3,56.4,30.15,SSW,203,0.0,7.0,68,0.00,,SKC,0.00,VWS V14.01,2013-06-10 12:38:00,
2013-06-10 08:39:00,67.4,56.5,30.15,South,182,0.0,7.0,68,0.00,,SKC,0.00,VWS V14.01,2013-06-10 12:39:00,
2013-06-10 08:40:00,67.4,55.7,30.15,SW,226,3.0,7.0,66,0.00,,SKC,0.00,VWS V14.01,2013-06-10 12:40:00,
2013-06-10 08:41:00,67.4,56.1,30.15,SW,236,2.0,3.0,67,0.00,,SKC,0.00,VWS V14.01,2013-06-10 12:41:00,
2013-06-10 08:43:00,67.4,55.7,30.15,SSW,209,0.0,7.0,66,0.00,,SKC,0.00,VWS V14.01,2013-06-10 12:43:00,
2013-06-10 08:44:00,67.4,55.7,30.15,SW,229,6.0,7.0,66,0.00,,SKC,0.00,VWS V14.01,2013-06-10 12:44:00,
2013-06-10 08:45:00,67.4,55.7,30.15,SW,219,4.0,7.0,66,0.00,,SKC,0.00,VWS V14.01,2013-06-10 12:45:00,
2013-06-10 08:46:00,67.3,55.2,30.15,SW,232,6.0,7.0,65,0.00,,SKC,0.00,VWS V14.01,2013-06-10 12:46:00,
2013-06-10 08:48:00,67.3,55.6,30.15,SW,220,0.0,7.0,66,0.00,,SKC,0.00,VWS V14.01,2013-06-10 12:48:00,
2013-06-10 08:49:00,67.3,56.0,30.15,SW,223,0.0,7.0,67,0.00,,SKC,0.00,VWS V14.01,2013-06-10 12:49:00,
2013-06-10 08:50:00,67.3,55.6,30.15,SSW,205,1.0,2.0,66,0.00,,SKC,0.00,VWS V14.01,2013-06-10 12:50:00,
2013-06-10 08:51:00,67.3,55.6,30.15,South,189,6.0,7.0,66,0.00,,SKC,0.00,VWS V14.01,2013-06-10 12:51:00,
2013-06-10 08:53:00,67.3,56.0,30.15,SSW,212,3.0,7.0,67,0.00,,SKC,0.00,VWS V14.01,2013-06-10 12:53:00,
2013-06-10 08:54:00,67.1,55.4,30.15,SW,216,5.0,7.0,66,0.00,,SKC,0.00,VWS V14.01,2013-06-10 12:54:00,
2013-06-10 08:55:00,67.3,56.0,30.15,SW,217,3.0,3.0,67,0.00,,SKC,0.00,VWS V14.01,2013-06-10 12:55:00,
2013-06-10 08:57:00,67.3,56.0,30.15,SW,224,3.0,4.0,67,0.00,,SKC,0.00,VWS V14.01,2013-06-10 12:57:00,
2013-06-10 08:58:00,67.4,56.1,30.15,SSW,210,4.0,7.0,67,0.00,,SKC,0.00,VWS V14.01,2013-06-10 12:58:00,
2013-06-10 09:00:00,67.4,55.7,30.15,SW,217,5.0,5.0,66,0.00,,SKC,0.00,VWS V14.01,2013-06-10 13:00:00,
2013-06-10 09:01:00,67.4,55.7,30.15,SW,223,7.0,7.0,66,0.00,,SKC,0.00,VWS V14.01,2013-06-10 13:01:00,
2013-06-10 09:02:00,67.3,55.6,30.15,SW,220,0.0,7.0,66,0.00,,SKC,0.00,VWS V14.01,2013-06-10 13:02:00,
2013-06-10 09:03:00,67.4,56.1,30.15,SW,230,2.0,7.0,67,0.00,,SKC,0.00,VWS V14.01,2013-06-10 13:03:00,
2013-06-10 09:05:00,67.3,56.0,30.15,SW,222,6.0,6.0,67,0.00,,SKC,0.00,VWS V14.01,2013-06-10 13:05:00,
2013-06-10 09:07:00,67.3,56.0,30.15,SSW,212,3.0,6.0,67,0.00,,SKC,0.00,VWS V14.01,2013-06-10 13:07:00,
2013-06-10 09:08:00,67.4,56.1,30.15,SW,216,4.0,6.0,67,0.00,,SKC,0.00,VWS V14.01,2013-06-10 13:08:00,
2013-06-10 09:09:00,67.4,56.1,30.15,SW,215,2.0,6.0,67,0.00,,SKC,0.00,VWS V14.01,2013-06-10 13:09:00,
2013-06-10 09:11:00,67.6,56.3,30.15,SW,227,5.0,9.0,67,0.00,,SKC,0.00,VWS V14.01,2013-06-10 13:11:00,
2013-06-10 09:12:00,67.6,56.3,30.15,SW,226,7.0,9.0,67,0.00,,SKC,0.00,VWS V14.01,2013-06-10 13:12:00,
2013-06-10 09:14:00,67.6,55.8,30.15,SW,233,6.0,9.0,66,0.00,,SKC,0.00,VWS V14.01,2013-06-10 13:14:00,
2013-06-10 09:15:00,67.6,55.8,30.15,SW,220,3.0,9.0,66,0.00,,SKC,0.00,VWS V14.01,2013-06-10 13:15:00,
2013-06-10 09:17:00,67.9,55.7,30.15,SW,224,4.0,6.0,65,0.00,,SKC,0.00,VWS V14.01,2013-06-10 13:17:00,
2013-06-10 09:20:00,67.9,55.3,30.15,SW,227,7.0,8.0,64,0.00,,SKC,0.00,VWS V14.01,2013-06-10 13:20:00,
2013-06-10 09:22:00,67.9,55.3,30.15,SW,226,2.0,8.0,64,0.00,,SKC,0.00,VWS V14.01,2013-06-10 13:22:00,
2013-06-10 09:23:00,67.9,55.3,30.15,SW,215,6.0,8.0,64,0.00,,SKC,0.00,VWS V14.01,2013-06-10 13:23:00,
2013-06-10 09:25:00,68.1,55.5,30.15,SW,219,1.0,8.0,64,0.00,,SKC,0.00,VWS V14.01,2013-06-10 13:25:00,
2013-06-10 09:27:00,68.4,56.2,30.15,SW,217,0.0,1.0,65,0.00,,SKC,0.00,VWS V14.01,2013-06-10 13:27:00,
2013-06-10 09:28:00,68.8,56.1,30.15,SW,224,6.0,8.0,64,0.00,,SKC,0.00,VWS V14.01,2013-06-10 13:28:00,
2013-06-10 09:30:00,68.8,55.7,30.15,SW,232,5.0,5.0,63,0.00,,SKC,0.00,VWS V14.01,2013-06-10 13:30:00,
2013-06-10 09:32:00,68.8,55.7,30.15,SW,229,0.0,5.0,63,0.00,,SKC,0.00,VWS V14.01,2013-06-10 13:32:00,
2013-06-10 09:33:00,68.8,55.7,30.15,SW,226,0.0,5.0,63,0.00,,SKC,0.00,VWS V14.01,2013-06-10 13:33:00,
2013-06-10 09:35:00,69.1,56.4,30.15,SW,216,0.0,1.0,64,0.00,,SKC,0.00,VWS V14.01,2013-06-10 13:35:00,
2013-06-10 09:37:00,69.4,56.3,30.15,SSW,203,0.0,3.0,63,0.00,,SKC,0.00,VWS V14.01,2013-06-10 13:37:00,
2013-06-10 09:38:00,69.4,56.3,30.15,South,182,0.0,3.0,63,0.00,,SKC,0.00,VWS V14.01,2013-06-10 13:38:00,
2013-06-10 09:39:00,69.6,56.5,30.15,SSW,210,1.0,3.0,63,0.00,,SKC,0.00,VWS V14.01,2013-06-10 13:39:00,
2013-06-10 09:40:00,69.8,56.2,30.15,SW,236,0.0,2.0,62,0.00,,SKC,0.00,VWS V14.01,2013-06-10 13:40:00,
2013-06-10 09:43:00,69.8,56.2,30.15,SW,215,0.0,2.0,62,0.00,,SKC,0.00,VWS V14.01,2013-06-10 13:43:00,
2013-06-10 09:44:00,69.9,56.3,30.15,SW,220,1.0,6.0,62,0.00,,SKC,0.00,VWS V14.01,2013-06-10 13:44:00,
2013-06-10 09:45:00,69.9,56.3,30.14,South,175,3.0,5.0,62,0.00,,SKC,0.00,VWS V14.01,2013-06-10 13:45:00,
2013-06-10 09:48:00,69.8,55.3,30.14,South,171,2.0,5.0,60,0.00,,SKC,0.00,VWS V14.01,2013-06-10 13:48:00,
2013-06-10 09:49:00,69.8,55.3,30.14,SSW,205,2.0,5.0,60,0.00,,SKC,0.00,VWS V14.01,2013-06-10 13:49:00,
2013-06-10 09:50:00,69.9,55.8,30.14,South,175,2.0,4.0,61,0.00,,SKC,0.00,VWS V14.01,2013-06-10 13:50:00,
2013-06-10 09:51:00,69.8,56.2,30.14,SSW,209,0.0,4.0,62,0.00,,SKC,0.00,VWS V14.01,2013-06-10 13:51:00,
2013-06-10 09:53:00,69.8,55.8,30.14,SW,230,0.0,4.0,61,0.00,,SKC,0.00,VWS V14.01,2013-06-10 13:53:00,
2013-06-10 09:55:00,69.8,55.8,30.14,South,175,3.0,3.0,61,0.00,,SKC,0.00,VWS V14.01,2013-06-10 13:55:00,
2013-06-10 09:56:00,69.8,55.8,30.14,South,191,3.0,4.0,61,0.00,,SKC,0.00,VWS V14.01,2013-06-10 13:56:00,
2013-06-10 09:57:00,69.8,56.2,30.14,South,169,0.0,4.0,62,0.00,,SKC,0.00,VWS V14.01,2013-06-10 13:57:00,
2013-06-10 09:59:00,69.8,56.2,30.15,South,171,0.0,4.0,62,0.00,,SKC,0.00,VWS V14.01,2013-06-10 13:59:00,
2013-06-10 10:01:00,69.6,55.6,30.15,SW,226,1.0,5.0,61,0.00,,SKC,0.00,VWS V14.01,2013-06-10 14:01:00,
2013-06-10 10:02:00,69.6,55.6,30.15,South,182,2.0,6.0,61,0.00,,SKC,0.00,VWS V14.01,2013-06-10 14:02:00,
2013-06-10 10:05:00,69.6,56.0,30.15,South,172,3.0,6.0,62,0.00,,SKC,0.00,VWS V14.01,2013-06-10 14:05:00,
2013-06-10 10:06:00,69.6,56.0,30.15,South,185,1.0,5.0,62,0.00,,SKC,0.00,VWS V14.01,2013-06-10 14:06:00,
2013-06-10 10:07:00,69.6,56.5,30.15,South,185,0.0,5.0,63,0.00,,SKC,0.00,VWS V14.01,2013-06-10 14:07:00,
2013-06-10 10:10:00,69.4,55.8,30.15,South,182,1.0,5.0,62,0.00,,SKC,0.00,VWS V14.01,2013-06-10 14:10:00,
2013-06-10 10:11:00,69.4,56.3,30.15,South,182,0.0,1.0,63,0.00,,SKC,0.00,VWS V14.01,2013-06-10 14:11:00,
2013-06-10 10:12:00,69.6,56.5,30.15,South,184,0.0,1.0,63,0.00,,SKC,0.00,VWS V14.01,2013-06-10 14:12:00,
2013-06-10 10:13:00,69.6,56.5,30.15,South,175,3.0,4.0,63,0.00,,SKC,0.00,VWS V14.01,2013-06-10 14:13:00,
2013-06-10 10:15:00,69.6,56.5,30.14,SSW,192,0.0,0.0,63,0.00,,SKC,0.00,VWS V14.01,2013-06-10 14:15:00,
2013-06-10 10:17:00,69.6,56.9,30.14,South,191,0.0,0.0,64,0.00,,SKC,0.00,VWS V14.01,2013-06-10 14:17:00,
2013-06-10 10:18:00,69.8,57.1,30.14,SSW,193,0.0,0.0,64,0.00,,SKC,0.00,VWS V14.01,2013-06-10 14:18:00,
2013-06-10 10:19:00,69.8,57.1,30.14,SSW,192,0.0,0.0,64,0.00,,SKC,0.00,VWS V14.01,2013-06-10 14:19:00,
2013-06-10 10:20:00,69.8,56.7,30.14,SSW,209,0.0,0.0,63,0.00,,SKC,0.00,VWS V14.01,2013-06-10 14:20:00,
2013-06-10 10:23:00,69.8,56.7,30.14,SSW,212,0.0,0.0,63,0.00,,SKC,0.00,VWS V14.01,2013-06-10 14:23:00,
2013-06-10 10:24:00,69.8,56.7,30.14,SSW,210,0.0,0.0,63,0.00,,SKC,0.00,VWS V14.01,2013-06-10 14:24:00,
2013-06-10 10:25:00,69.6,56.5,30.14,SW,220,0.0,1.0,63,0.00,,SKC,0.00,VWS V14.01,2013-06-10 14:25:00,
2013-06-10 10:29:00,69.6,56.9,30.14,SW,219,0.0,0.0,64,0.00,,SKC,0.00,VWS V14.01,2013-06-10 14:29:00,
2013-06-10 10:30:00,69.6,56.5,30.15,SW,220,0.0,0.0,63,0.00,,SKC,0.00,VWS V14.01,2013-06-10 14:30:00,
2013-06-10 10:31:00,69.6,56.9,30.15,SW,215,0.0,0.0,64,0.00,,SKC,0.00,VWS V14.01,2013-06-10 14:31:00,
2013-06-10 10:34:00,69.6,56.9,30.15,SW,216,0.0,0.0,64,0.00,,SKC,0.00,VWS V14.01,2013-06-10 14:34:00,
2013-06-10 10:35:00,69.6,56.9,30.15,SW,216,0.0,0.0,64,0.00,,SKC,0.00,VWS V14.01,2013-06-10 14:35:00,
2013-06-10 10:36:00,69.6,56.9,30.15,SW,215,2.0,2.0,64,0.00,,SKC,0.00,VWS V14.01,2013-06-10 14:36:00,
2013-06-10 10:39:00,69.4,56.7,30.15,SW,216,3.0,6.0,64,0.00,,SKC,0.00,VWS V14.01,2013-06-10 14:39:00,
2013-06-10 10:40:00,69.4,56.7,30.15,SW,217,0.0,0.0,64,0.00,,SKC,0.00,VWS V14.01,2013-06-10 14:40:00,
2013-06-10 10:42:00,69.6,56.9,30.15,SW,216,0.0,0.0,64,0.00,,SKC,0.00,VWS V14.01,2013-06-10 14:42:00,
2013-06-10 10:44:00,69.6,57.3,30.14,SSW,213,0.0,0.0,65,0.00,,SKC,0.00,VWS V14.01,2013-06-10 14:44:00,
2013-06-10 10:45:00,69.6,57.3,30.14,SW,215,0.0,0.0,65,0.00,,SKC,0.00,VWS V14.01,2013-06-10 14:45:00,
2013-06-10 10:47:00,69.8,57.5,30.14,SW,216,0.0,0.0,65,0.00,,SKC,0.00,VWS V14.01,2013-06-10 14:47:00,
2013-06-10 10:48:00,69.8,57.5,30.14,SW,236,2.0,4.0,65,0.00,,SKC,0.00,VWS V14.01,2013-06-10 14:48:00,
2013-06-10 10:49:00,69.8,57.5,30.14,SW,227,1.0,4.0,65,0.00,,SKC,0.00,VWS V14.01,2013-06-10 14:49:00,
2013-06-10 10:50:00,69.6,56.9,30.14,SW,227,2.0,4.0,64,0.00,,SKC,0.00,VWS V14.01,2013-06-10 14:50:00,
2013-06-10 10:52:00,69.6,56.9,30.14,SW,223,1.0,5.0,64,0.00,,SKC,0.00,VWS V14.01,2013-06-10 14:52:00,
2013-06-10 10:53:00,69.6,56.9,30.14,SW,222,0.0,5.0,64,0.00,,SKC,0.00,VWS V14.01,2013-06-10 14:53:00,
2013-06-10 10:54:00,69.8,57.1,30.14,SW,220,1.0,5.0,64,0.00,,SKC,0.00,VWS V14.01,2013-06-10 14:54:00,
2013-06-10 10:55:00,69.8,57.1,30.14,SW,222,2.0,5.0,64,0.00,,SKC,0.00,VWS V14.01,2013-06-10 14:55:00,
2013-06-10 10:57:00,69.8,57.1,30.14,SW,224,0.0,3.0,64,0.00,,SKC,0.00,VWS V14.01,2013-06-10 14:57:00,
2013-06-10 10:58:00,69.8,56.7,30.14,SW,224,0.0,3.0,63,0.00,,SKC,0.00,VWS V14.01,2013-06-10 14:58:00,
2013-06-10 10:59:00,69.8,56.7,30.14,SW,224,0.0,3.0,63,0.00,,SKC,0.00,VWS V14.01,2013-06-10 14:59:00,
2013-06-10 11:00:00,69.8,57.1,30.14,SW,223,0.0,0.0,64,0.00,,SKC,0.00,VWS V14.01,2013-06-10 15:00:00,
2013-06-10 11:02:00,69.8,57.1,30.14,SW,223,0.0,0.0,64,0.00,,SKC,0.00,VWS V14.01,2013-06-10 15:02:00,
2013-06-10 11:03:00,69.8,57.1,30.14,SW,227,4.0,4.0,64,0.00,,SKC,0.00,VWS V14.01,2013-06-10 15:03:00,
2013-06-10 11:05:00,69.8,57.1,30.14,SW,222,0.0,0.0,64,0.00,,SKC,0.00,VWS V14.01,2013-06-10 15:05:00,
2013-06-10 11:08:00,69.8,56.7,30.14,SSW,205,1.0,1.0,63,0.00,,SKC,0.00,VWS V14.01,2013-06-10 15:08:00,
2013-06-10 11:09:00,69.8,57.1,30.14,SSW,203,0.0,2.0,64,0.00,,SKC,0.00,VWS V14.01,2013-06-10 15:09:00,
2013-06-10 11:10:00,69.8,57.1,30.14,SSW,213,0.0,0.0,64,0.00,,SKC,0.00,VWS V14.01,2013-06-10 15:10:00,
2013-06-10 11:11:00,69.8,57.1,30.14,SSW,209,1.0,1.0,64,0.00,,SKC,0.00,VWS V14.01,2013-06-10 15:11:00,
2013-06-10 11:13:00,69.6,56.5,30.14,SW,220,3.0,5.0,63,0.00,,SKC,0.00,VWS V14.01,2013-06-10 15:13:00,
2013-06-10 11:14:00,69.6,56.9,30.14,SW,220,1.0,5.0,64,0.00,,SKC,0.00,VWS V14.01,2013-06-10 15:14:00,
2013-06-10 11:15:00,69.6,56.9,30.14,SW,219,0.0,1.0,64,0.00,,SKC,0.00,VWS V14.01,2013-06-10 15:15:00,
2013-06-10 11:16:00,69.6,56.9,30.14,SW,219,0.0,1.0,64,0.00,,SKC,0.00,VWS V14.01,2013-06-10 15:16:00,
2013-06-10 11:19:00,69.6,56.9,30.14,SW,220,0.0,1.0,64,0.00,,SKC,0.00,VWS V14.01,2013-06-10 15:19:00,
2013-06-10 11:21:00,69.6,56.5,30.14,SSW,203,0.0,0.0,63,0.00,,SKC,0.00,VWS V14.01,2013-06-10 15:21:00,
2013-06-10 11:22:00,69.6,56.9,30.14,SSW,206,0.0,0.0,64,0.00,,SKC,0.00,VWS V14.01,2013-06-10 15:22:00,
2013-06-10 11:24:00,69.6,56.9,30.14,SSW,202,0.0,0.0,64,0.00,,SKC,0.00,VWS V14.01,2013-06-10 15:24:00,
2013-06-10 11:26:00,69.6,56.5,30.14,SSW,193,1.0,3.0,63,0.00,,SKC,0.00,VWS V14.01,2013-06-10 15:26:00,
2013-06-10 11:27:00,69.6,56.5,30.14,SW,230,3.0,3.0,63,0.00,,SKC,0.00,VWS V14.01,2013-06-10 15:27:00,
2013-06-10 11:29:00,69.6,56.9,30.13,SW,233,0.0,3.0,64,0.00,,SKC,0.00,VWS V14.01,2013-06-10 15:29:00,
2013-06-10 11:30:00,69.6,56.5,30.13,SW,233,0.0,0.0,63,0.00,,SKC,0.00,VWS V14.01,2013-06-10 15:30:00,
2013-06-10 11:32:00,69.6,56.5,30.13,SW,229,0.0,0.0,63,0.00,,SKC,0.00,VWS V14.01,2013-06-10 15:32:00,
2013-06-10 11:34:00,69.6,56.9,30.13,SW,227,0.0,0.0,64,0.00,,SKC,0.00,VWS V14.01,2013-06-10 15:34:00,
2013-06-10 11:35:00,69.6,56.5,30.13,SW,227,0.0,0.0,63,0.00,,SKC,0.00,VWS V14.01,2013-06-10 15:35:00,
2013-06-10 11:36:00,69.6,56.5,30.13,SW,224,0.0,0.0,63,0.00,,SKC,0.00,VWS V14.01,2013-06-10 15:36:00,
2013-06-10 11:37:00,69.6,56.5,30.13,SW,226,0.0,0.0,63,0.00,,SKC,0.00,VWS V14.01,2013-06-10 15:37:00,
2013-06-10 11:38:00,69.6,56.9,30.13,SSW,196,2.0,2.0,64,0.00,,SKC,0.00,VWS V14.01,2013-06-10 15:38:00,
2013-06-10 11:39:00,69.6,56.5,30.13,SSW,202,0.0,2.0,63,0.00,,SKC,0.00,VWS V14.01,2013-06-10 15:39:00,
2013-06-10 11:40:00,69.8,57.1,30.13,SSW,198,0.0,0.0,64,0.00,,SKC,0.00,VWS V14.01,2013-06-10 15:40:00,
2013-06-10 11:42:00,69.8,57.1,30.13,South,184,0.0,0.0,64,0.00,,SKC,0.00,VWS V14.01,2013-06-10 15:42:00,
2013-06-10 11:43:00,69.8,57.1,30.13,South,182,0.0,1.0,64,0.00,,SKC,0.00,VWS V14.01,2013-06-10 15:43:00,
2013-06-10 11:44:00,69.8,57.1,30.13,SSW,208,0.0,1.0,64,0.00,,SKC,0.00,VWS V14.01,2013-06-10 15:44:00,
2013-06-10 11:45:00,69.8,57.1,30.13,SSW,210,1.0,4.0,64,0.00,,SKC,0.00,VWS V14.01,2013-06-10 15:45:00,
2013-06-10 11:46:00,69.6,56.5,30.13,SSW,202,2.0,4.0,63,0.00,,SKC,0.00,VWS V14.01,2013-06-10 15:46:00,
2013-06-10 11:47:00,69.6,56.5,30.13,SW,220,1.0,4.0,63,0.00,,SKC,0.00,VWS V14.01,2013-06-10 15:47:00,
2013-06-10 11:48:00,69.6,56.5,30.13,SSW,210,3.0,4.0,63,0.00,,SKC,0.00,VWS V14.01,2013-06-10 15:48:00,
2013-06-10 11:49:00,69.6,56.5,30.13,SW,216,0.0,4.0,63,0.00,,SKC,0.00,VWS V14.01,2013-06-10 15:49:00,
2013-06-10 11:50:00,69.6,56.5,30.13,SW,217,0.0,1.0,63,0.00,,SKC,0.00,VWS V14.01,2013-06-10 15:50:00,
2013-06-10 11:51:00,69.6,56.5,30.13,SW,219,0.0,4.0,63,0.00,,SKC,0.00,VWS V14.01,2013-06-10 15:51:00,
2013-06-10 11:52:00,69.4,55.8,30.13,SW,236,2.0,4.0,62,0.00,,SKC,0.00,VWS V14.01,2013-06-10 15:52:00,
2013-06-10 11:53:00,69.4,55.8,30.13,SSW,198,2.0,4.0,62,0.00,,SKC,0.00,VWS V14.01,2013-06-10 15:53:00,
2013-06-10 11:54:00,69.4,55.8,30.13,SSW,196,0.0,4.0,62,0.00,,SKC,0.00,VWS V14.01,2013-06-10 15:54:00,
2013-06-10 11:56:00,69.4,55.8,30.13,SW,219,5.0,6.0,62,0.00,,SKC,0.00,VWS V14.01,2013-06-10 15:56:00,
2013-06-10 11:57:00,69.3,55.7,30.13,SW,219,0.0,6.0,62,0.00,,SKC,0.00,VWS V14.01,2013-06-10 15:57:00,
2013-06-10 11:58:00,69.3,56.2,30.13,SW,217,0.0,6.0,63,0.00,,SKC,0.00,VWS V14.01,2013-06-10 15:58:00,
2013-06-10 12:00:00,69.3,56.6,30.14,SW,220,0.0,6.0,64,0.00,,SKC,0.00,VWS V14.01,2013-06-10 16:00:00,
2013-06-10 12:01:00,69.3,56.6,30.14,SW,217,0.0,0.0,64,0.00,,SKC,0.00,VWS V14.01,2013-06-10 16:01:00,
2013-06-10 12:02:00,69.3,56.6,30.14,SSW,210,0.0,0.0,64,0.00,,SKC,0.00,VWS V14.01,2013-06-10 16:02:00,
2013-06-10 12:03:00,69.3,56.6,30.14,SW,223,2.0,5.0,64,0.00,,SKC,0.00,VWS V14.01,2013-06-10 16:03:00,
2013-06-10 12:05:00,69.3,56.6,30.14,SW,222,3.0,3.0,64,0.00,,SKC,0.00,VWS V14.01,2013-06-10 16:05:00,
2013-06-10 12:07:00,69.1,56.4,30.14,SW,215,0.0,5.0,64,0.00,,SKC,0.00,VWS V14.01,2013-06-10 16:07:00,
2013-06-10 12:08:00,69.1,56.8,30.14,SW,230,0.0,5.0,65,0.00,,SKC,0.00,VWS V14.01,2013-06-10 16:08:00,
2013-06-10 12:09:00,69.1,56.8,30.14,SW,229,2.0,5.0,65,0.00,,SKC,0.00,VWS V14.01,2013-06-10 16:09:00,
2013-06-10 12:10:00,69.1,56.8,30.14,SW,227,2.0,2.0,65,0.00,,SKC,0.00,VWS V14.01,2013-06-10 16:10:00,
2013-06-10 12:12:00,68.9,56.7,30.14,SW,226,0.0,3.0,65,0.00,,SKC,0.00,VWS V14.01,2013-06-10 16:12:00,
2013-06-10 12:13:00,68.9,56.7,30.14,SW,224,1.0,3.0,65,0.00,,SKC,0.00,VWS V14.01,2013-06-10 16:13:00,
2013-06-10 12:15:00,68.8,56.1,30.15,SW,233,1.0,6.0,64,0.00,,SKC,0.00,VWS V14.01,2013-06-10 16:15:00,
2013-06-10 12:18:00,68.8,56.6,30.15,SW,215,0.0,3.0,65,0.00,,SKC,0.00,VWS V14.01,2013-06-10 16:18:00,
2013-06-10 12:20:00,68.8,56.1,30.15,SSW,199,0.0,3.0,64,0.00,,SKC,0.00,VWS V14.01,2013-06-10 16:20:00,
2013-06-10 12:23:00,68.6,57.2,30.15,SSW,200,0.0,0.0,67,0.00,,SKC,0.00,VWS V14.01,2013-06-10 16:23:00,
2013-06-10 12:25:00,68.6,57.6,30.15,SSW,200,0.0,2.0,68,0.00,,SKC,0.00,VWS V14.01,2013-06-10 16:25:00,
2013-06-10 12:26:00,68.6,57.6,30.15,SSW,192,2.0,3.0,68,0.00,,SKC,0.00,VWS V14.01,2013-06-10 16:26:00,
2013-06-10 12:28:00,68.6,57.6,30.15,SSW,195,0.0,3.0,68,0.00,,SKC,0.00,VWS V14.01,2013-06-10 16:28:00,
2013-06-10 12:30:00,68.4,57.4,30.15,SSW,196,0.0,3.0,68,0.00,,SKC,0.00,VWS V14.01,2013-06-10 16:30:00,
2013-06-10 12:32:00,68.4,57.4,30.15,SSW,195,0.0,0.0,68,0.00,,SKC,0.00,VWS V14.01,2013-06-10 16:32:00,
2013-06-10 12:33:00,68.4,57.8,30.15,SSW,195,0.0,1.0,69,0.00,,SKC,0.00,VWS V14.01,2013-06-10 16:33:00,
2013-06-10 12:35:00,68.4,57.8,30.15,SW,220,1.0,3.0,69,0.00,,SKC,0.00,VWS V14.01,2013-06-10 16:35:00,
2013-06-10 12:37:00,68.3,57.8,30.15,SW,219,0.0,2.0,69,0.00,,SKC,0.00,VWS V14.01,2013-06-10 16:37:00,
2013-06-10 12:38:00,68.3,57.8,30.15,SW,222,0.0,2.0,69,0.00,,SKC,0.00,VWS V14.01,2013-06-10 16:38:00,
2013-06-10 12:40:00,68.1,57.6,30.15,South,189,0.0,1.0,69,0.00,,SKC,0.00,VWS V14.01,2013-06-10 16:40:00,
2013-06-10 12:41:00,68.1,57.6,30.15,South,189,2.0,2.0,69,0.00,,SKC,0.00,VWS V14.01,2013-06-10 16:41:00,
2013-06-10 12:42:00,68.1,58.3,30.15,South,182,0.0,2.0,71,0.00,,SKC,0.00,VWS V14.01,2013-06-10 16:42:00,
2013-06-10 12:44:00,67.9,58.2,30.15,South,186,2.0,2.0,71,0.00,,SKC,0.00,VWS V14.01,2013-06-10 16:44:00,
2013-06-10 12:45:00,67.9,58.2,30.14,South,184,2.0,2.0,71,0.00,,SKC,0.00,VWS V14.01,2013-06-10 16:45:00,
2013-06-10 12:46:00,67.8,58.1,30.14,South,185,2.0,2.0,71,0.00,,SKC,0.00,VWS V14.01,2013-06-10 16:46:00,
2013-06-10 12:47:00,67.8,58.5,30.14,South,184,0.0,3.0,72,0.00,,SKC,0.00,VWS V14.01,2013-06-10 16:47:00,
2013-06-10 12:49:00,67.6,58.3,30.14,South,179,1.0,3.0,72,0.00,,SKC,0.00,VWS V14.01,2013-06-10 16:49:00,
2013-06-10 12:51:00,67.6,58.7,30.14,South,179,0.0,0.0,73,0.00,,SKC,0.00,VWS V14.01,2013-06-10 16:51:00,
2013-06-10 12:52:00,67.6,59.0,30.14,South,179,0.0,0.0,74,0.00,,SKC,0.00,VWS V14.01,2013-06-10 16:52:00,
2013-06-10 12:53:00,67.4,58.5,30.14,South,181,0.0,0.0,73,0.00,,SKC,0.00,VWS V14.01,2013-06-10 16:53:00,
2013-06-10 12:54:00,67.4,58.8,30.14,South,179,0.0,0.0,74,0.00,,SKC,0.00,VWS V14.01,2013-06-10 16:54:00,
2013-06-10 12:56:00,67.4,58.8,30.14,South,181,0.0,0.0,74,0.00,,SKC,0.00,VWS V14.01,2013-06-10 16:56:00,
2013-06-10 12:57:00,67.3,58.7,30.14,SSW,202,1.0,3.0,74,0.00,,SKC,0.00,VWS V14.01,2013-06-10 16:57:00,
2013-06-10 12:58:00,67.1,58.5,30.14,SSW,203,0.0,3.0,74,0.00,,SKC,0.00,VWS V14.01,2013-06-10 16:58:00,
2013-06-10 12:59:00,66.9,58.7,30.15,SSW,205,0.0,3.0,75,0.01,,SKC,0.01,VWS V14.01,2013-06-10 16:59:00,
2013-06-10 13:02:00,66.9,58.7,30.15,SSW,203,0.0,0.0,75,0.01,,SKC,0.01,VWS V14.01,2013-06-10 17:02:00,
2013-06-10 13:03:00,66.8,58.6,30.15,SSW,203,0.0,0.0,75,0.01,,SKC,0.01,VWS V14.01,2013-06-10 17:03:00,
2013-06-10 13:05:00,66.6,58.8,30.15,SW,216,0.0,2.0,76,0.01,,SKC,0.01,VWS V14.01,2013-06-10 17:05:00,
2013-06-10 13:07:00,66.6,59.5,30.15,SW,216,0.0,0.0,78,0.01,,SKC,0.01,VWS V14.01,2013-06-10 17:07:00,
2013-06-10 13:08:00,66.6,59.5,30.15,SSW,213,0.0,0.0,78,0.01,,SKC,0.01,VWS V14.01,2013-06-10 17:08:00,
2013-06-10 13:09:00,66.6,59.5,30.15,SSW,213,0.0,0.0,78,0.01,,SKC,0.01,VWS V14.01,2013-06-10 17:09:00,
2013-06-10 13:11:00,66.4,59.3,30.15,SW,216,0.0,0.0,78,0.01,,SKC,0.01,VWS V14.01,2013-06-10 17:11:00,
2013-06-10 13:12:00,66.4,59.7,30.15,SW,215,0.0,0.0,79,0.01,,SKC,0.01,VWS V14.01,2013-06-10 17:12:00,
2013-06-10 13:13:00,66.4,59.7,30.15,SW,215,0.0,0.0,79,0.01,,SKC,0.01,VWS V14.01,2013-06-10 17:13:00,
2013-06-10 13:15:00,66.4,60.0,30.14,SSW,212,0.0,0.0,80,0.02,,SKC,0.02,VWS V14.01,2013-06-10 17:15:00,
2013-06-10 13:16:00,66.3,60.0,30.14,SSW,206,0.0,0.0,80,0.02,,SKC,0.02,VWS V14.01,2013-06-10 17:16:00,
2013-06-10 13:17:00,66.1,59.4,30.14,SSW,206,0.0,0.0,79,0.02,,SKC,0.02,VWS V14.01,2013-06-10 17:17:00,
2013-06-10 13:18:00,66.1,59.4,30.14,SSW,196,0.0,0.0,79,0.02,,SKC,0.02,VWS V14.01,2013-06-10 17:18:00,
2013-06-10 13:19:00,66.0,59.3,30.14,South,172,1.0,3.0,79,0.02,,SKC,0.02,VWS V14.01,2013-06-10 17:19:00,
2013-06-10 13:20:00,66.0,59.3,30.14,South,174,2.0,3.0,79,0.02,,SKC,0.02,VWS V14.01,2013-06-10 17:20:00,
2013-06-10 13:22:00,65.8,59.5,30.14,South,172,0.0,2.0,80,0.02,,SKC,0.02,VWS V14.01,2013-06-10 17:22:00,
2013-06-10 13:23:00,65.8,59.8,30.14,South,174,0.0,2.0,81,0.02,,SKC,0.02,VWS V14.01,2013-06-10 17:23:00,
2013-06-10 13:24:00,65.6,59.6,30.14,South,172,0.0,2.0,81,0.02,,SKC,0.02,VWS V14.01,2013-06-10 17:24:00,
2013-06-10 13:25:00,65.6,59.6,30.14,South,172,0.0,0.0,81,0.02,,SKC,0.02,VWS V14.01,2013-06-10 17:25:00,
2013-06-10 13:27:00,65.6,59.6,30.14,South,174,0.0,0.0,81,0.02,,SKC,0.02,VWS V14.01,2013-06-10 17:27:00,
2013-06-10 13:28:00,65.6,59.6,30.14,South,175,0.0,0.0,81,0.02,,SKC,0.02,VWS V14.01,2013-06-10 17:28:00,
2013-06-10 13:29:00,65.6,60.0,30.13,South,174,0.0,0.0,82,0.02,,SKC,0.02,VWS V14.01,2013-06-10 17:29:00,
2013-06-10 13:30:00,65.5,59.9,30.13,South,174,1.0,2.0,82,0.02,,SKC,0.02,VWS V14.01,2013-06-10 17:30:00,
2013-06-10 13:32:00,65.3,59.7,30.13,South,176,1.0,3.0,82,0.02,,SKC,0.02,VWS V14.01,2013-06-10 17:32:00,
2013-06-10 13:33:00,65.3,59.7,30.13,South,176,0.0,3.0,82,0.02,,SKC,0.02,VWS V14.01,2013-06-10 17:33:00,
2013-06-10 13:34:00,65.3,60.0,30.13,South,175,0.0,3.0,83,0.02,,SKC,0.02,VWS V14.01,2013-06-10 17:34:00,
2013-06-10 13:35:00,65.3,60.0,30.13,South,176,0.0,3.0,83,0.02,,SKC,0.02,VWS V14.01,2013-06-10 17:35:00,
2013-06-10 13:37:00,65.3,60.3,30.13,South,175,0.0,0.0,84,0.02,,SKC,0.02,VWS V14.01,2013-06-10 17:37:00,
2013-06-10 13:38:00,65.3,60.3,30.13,South,176,0.0,0.0,84,0.02,,SKC,0.02,VWS V14.01,2013-06-10 17:38:00,
2013-06-10 13:39:00,65.3,60.3,30.13,South,175,0.0,0.0,84,0.02,,SKC,0.02,VWS V14.01,2013-06-10 17:39:00,
2013-06-10 13:40:00,65.3,60.3,30.13,South,176,0.0,0.0,84,0.02,,SKC,0.02,VWS V14.01,2013-06-10 17:40:00,
2013-06-10 13:42:00,65.3,60.3,30.13,South,176,0.0,0.0,84,0.02,,SKC,0.02,VWS V14.01,2013-06-10 17:42:00,
2013-06-10 13:43:00,65.2,60.2,30.13,South,179,0.0,0.0,84,0.02,,SKC,0.02,VWS V14.01,2013-06-10 17:43:00,
2013-06-10 13:44:00,65.2,60.2,30.13,South,175,2.0,2.0,84,0.02,,SKC,0.02,VWS V14.01,2013-06-10 17:44:00,
2013-06-10 13:45:00,65.2,60.2,30.13,South,175,0.0,2.0,84,0.02,,SKC,0.02,VWS V14.01,2013-06-10 17:45:00,
2013-06-10 13:46:00,65.2,60.2,30.13,South,179,0.0,0.0,84,0.02,,SKC,0.02,VWS V14.01,2013-06-10 17:46:00,
2013-06-10 13:47:00,65.2,60.2,30.13,South,178,2.0,3.0,84,0.02,,SKC,0.02,VWS V14.01,2013-06-10 17:47:00,
2013-06-10 13:49:00,65.0,60.0,30.13,South,175,0.0,3.0,84,0.02,,SKC,0.02,VWS V14.01,2013-06-10 17:49:00,
2013-06-10 13:50:00,65.0,60.0,30.13,South,176,0.0,3.0,84,0.02,,SKC,0.02,VWS V14.01,2013-06-10 17:50:00,
2013-06-10 13:52:00,64.8,59.9,30.13,South,176,0.0,0.0,84,0.02,,SKC,0.02,VWS V14.01,2013-06-10 17:52:00,
2013-06-10 13:54:00,65.0,60.4,30.13,South,178,0.0,0.0,85,0.02,,SKC,0.02,VWS V14.01,2013-06-10 17:54:00,
2013-06-10 13:55:00,65.0,60.4,30.13,South,176,0.0,0.0,85,0.02,,SKC,0.02,VWS V14.01,2013-06-10 17:55:00,
2013-06-10 13:57:00,65.0,60.4,30.13,South,175,0.0,0.0,85,0.02,,SKC,0.02,VWS V14.01,2013-06-10 17:57:00,
2013-06-10 13:59:00,65.2,60.6,30.13,South,175,0.0,0.0,85,0.02,,SKC,0.02,VWS V14.01,2013-06-10 17:59:00,
2013-06-10 14:00:00,65.2,60.6,30.13,South,176,0.0,0.0,85,0.01,,SKC,0.02,VWS V14.01,2013-06-10 18:00:00,
2013-06-10 14:01:00,65.0,60.4,30.13,South,176,0.0,0.0,85,0.01,,SKC,0.02,VWS V14.01,2013-06-10 18:01:00,
2013-06-10 14:02:00,65.2,60.6,30.13,South,176,0.0,0.0,85,0.01,,SKC,0.02,VWS V14.01,2013-06-10 18:02:00,
2013-06-10 14:03:00,65.2,60.9,30.13,South,176,0.0,0.0,86,0.01,,SKC,0.02,VWS V14.01,2013-06-10 18:03:00,
2013-06-10 14:04:00,65.2,60.6,30.13,South,176,0.0,0.0,85,0.01,,SKC,0.02,VWS V14.01,2013-06-10 18:04:00,
2013-06-10 14:06:00,65.0,60.4,30.13,South,176,0.0,1.0,85,0.01,,SKC,0.02,VWS V14.01,2013-06-10 18:06:00,
2013-06-10 14:07:00,65.0,60.4,30.13,South,174,0.0,1.0,85,0.01,,SKC,0.02,VWS V14.01,2013-06-10 18:07:00,
2013-06-10 14:08:00,65.0,60.4,30.13,South,175,0.0,1.0,85,0.01,,SKC,0.02,VWS V14.01,2013-06-10 18:08:00,
2013-06-10 14:09:00,65.0,60.4,30.13,South,176,0.0,1.0,85,0.01,,SKC,0.02,VWS V14.01,2013-06-10 18:09:00,
2013-06-10 14:12:00,65.0,60.4,30.13,South,178,0.0,0.0,85,0.01,,SKC,0.02,VWS V14.01,2013-06-10 18:12:00,
2013-06-10 14:13:00,65.0,60.4,30.13,South,178,0.0,1.0,85,0.01,,SKC,0.02,VWS V14.01,2013-06-10 18:13:00,
2013-06-10 14:14:00,65.0,60.4,30.13,SSW,196,0.0,1.0,85,0.01,,SKC,0.02,VWS V14.01,2013-06-10 18:14:00,
2013-06-10 14:18:00,65.2,60.6,30.13,SSW,196,0.0,0.0,85,0.00,,SKC,0.02,VWS V14.01,2013-06-10 18:18:00,
2013-06-10 14:19:00,65.2,60.6,30.13,SW,219,3.0,3.0,85,0.00,,SKC,0.02,VWS V14.01,2013-06-10 18:19:00,
2013-06-10 14:23:00,65.0,60.4,30.13,SW,215,0.0,1.0,85,0.00,,SKC,0.02,VWS V14.01,2013-06-10 18:23:00,
2013-06-10 14:24:00,65.0,60.4,30.13,SW,216,0.0,1.0,85,0.00,,SKC,0.02,VWS V14.01,2013-06-10 18:24:00,
2013-06-10 14:25:00,65.0,60.4,30.13,SSW,213,0.0,1.0,85,0.00,,SKC,0.02,VWS V14.01,2013-06-10 18:25:00,
2013-06-10 14:28:00,65.2,60.6,30.13,SSW,213,0.0,0.0,85,0.01,,SKC,0.03,VWS V14.01,2013-06-10 18:28:00,
2013-06-10 14:29:00,65.2,60.9,30.13,SW,215,0.0,0.0,86,0.01,,SKC,0.03,VWS V14.01,2013-06-10 18:29:00,
2013-06-10 14:30:00,65.2,60.9,30.13,SW,215,0.0,0.0,86,0.01,,SKC,0.03,VWS V14.01,2013-06-10 18:30:00,
2013-06-10 14:33:00,65.2,60.9,30.13,SW,215,0.0,0.0,86,0.01,,SKC,0.03,VWS V14.01,2013-06-10 18:33:00,
2013-06-10 14:34:00,65.2,60.9,30.13,SW,220,3.0,3.0,86,0.01,,SKC,0.03,VWS V14.01,2013-06-10 18:34:00,
2013-06-10 14:35:00,65.2,60.9,30.13,SW,220,2.0,2.0,86,0.01,,SKC,0.03,VWS V14.01,2013-06-10 18:35:00,
2013-06-10 14:36:00,65.0,60.4,30.13,SW,227,5.0,6.0,85,0.01,,SKC,0.03,VWS V14.01,2013-06-10 18:36:00,
2013-06-10 14:39:00,64.7,59.4,30.13,SW,224,3.0,6.0,83,0.01,,SKC,0.03,VWS V14.01,2013-06-10 18:39:00,
2013-06-10 14:40:00,64.7,59.8,30.13,SW,224,2.0,2.0,84,0.01,,SKC,0.03,VWS V14.01,2013-06-10 18:40:00,
2013-06-10 14:41:00,64.7,59.8,30.13,SW,223,0.0,2.0,84,0.01,,SKC,0.03,VWS V14.01,2013-06-10 18:41:00,
2013-06-10 14:44:00,64.7,60.1,30.12,SW,223,1.0,6.0,85,0.01,,SKC,0.03,VWS V14.01,2013-06-10 18:44:00,
2013-06-10 14:46:00,64.7,60.1,30.12,SW,226,3.0,3.0,85,0.01,,SKC,0.03,VWS V14.01,2013-06-10 18:46:00,
2013-06-10 14:47:00,64.7,60.1,30.12,SW,224,2.0,3.0,85,0.01,,SKC,0.03,VWS V14.01,2013-06-10 18:47:00,
2013-06-10 14:50:00,64.5,59.9,30.12,SW,217,3.0,5.0,85,0.02,,SKC,0.04,VWS V14.01,2013-06-10 18:50:00,
2013-06-10 14:51:00,64.5,59.9,30.12,SW,217,0.0,5.0,85,0.02,,SKC,0.04,VWS V14.01,2013-06-10 18:51:00,
2013-06-10 14:52:00,64.7,60.4,30.12,SW,219,0.0,5.0,86,0.02,,SKC,0.04,VWS V14.01,2013-06-10 18:52:00,
2013-06-10 14:53:00,64.7,60.4,30.12,SW,216,0.0,5.0,86,0.02,,SKC,0.04,VWS V14.01,2013-06-10 18:53:00,
2013-06-10 14:55:00,64.8,60.8,30.12,SW,217,0.0,0.0,87,0.02,,SKC,0.04,VWS V14.01,2013-06-10 18:55:00,
2013-06-10 14:56:00,64.7,60.4,30.12,SW,229,1.0,3.0,86,0.02,,SKC,0.04,VWS V14.01,2013-06-10 18:56:00,
2013-06-10 14:57:00,64.7,60.8,30.12,SW,227,0.0,3.0,87,0.02,,SKC,0.04,VWS V14.01,2013-06-10 18:57:00,
2013-06-10 14:59:00,64.7,60.8,30.12,SW,226,2.0,3.0,87,0.02,,SKC,0.04,VWS V14.01,2013-06-10 18:59:00,
2013-06-10 15:00:00,64.7,60.8,30.12,SW,226,0.0,0.0,87,0.02,,SKC,0.04,VWS V14.01,2013-06-10 19:00:00,
2013-06-10 15:02:00,64.7,60.8,30.12,SW,224,0.0,0.0,87,0.02,,SKC,0.04,VWS V14.01,2013-06-10 19:02:00,
2013-06-10 15:04:00,64.7,61.1,30.12,SW,226,0.0,0.0,88,0.02,,SKC,0.04,VWS V14.01,2013-06-10 19:04:00,
2013-06-10 15:06:00,64.5,60.5,30.12,SW,219,2.0,3.0,87,0.02,,SKC,0.04,VWS V14.01,2013-06-10 19:06:00,
2013-06-10 15:08:00,64.5,60.5,30.12,SW,216,0.0,3.0,87,0.02,,SKC,0.04,VWS V14.01,2013-06-10 19:08:00,
2013-06-10 15:09:00,64.3,60.3,30.12,SW,220,0.0,3.0,87,0.02,,SKC,0.04,VWS V14.01,2013-06-10 19:09:00,
2013-06-10 15:11:00,64.5,60.5,30.12,SW,217,0.0,0.0,87,0.02,,SKC,0.04,VWS V14.01,2013-06-10 19:11:00,
2013-06-10 15:13:00,64.5,60.5,30.12,SW,219,0.0,0.0,87,0.02,,SKC,0.04,VWS V14.01,2013-06-10 19:13:00,
2013-06-10 15:14:00,64.5,60.5,30.11,SW,220,0.0,0.0,87,0.02,,SKC,0.04,VWS V14.01,2013-06-10 19:14:00,
2013-06-10 15:16:00,64.5,60.9,30.11,SW,219,0.0,1.0,88,0.02,,SKC,0.04,VWS V14.01,2013-06-10 19:16:00,
2013-06-10 15:18:00,64.7,61.1,30.11,SW,217,0.0,1.0,88,0.02,,SKC,0.04,VWS V14.01,2013-06-10 19:18:00,
2013-06-10 15:20:00,64.7,61.1,30.11,SW,230,3.0,3.0,88,0.02,,SKC,0.04,VWS V14.01,2013-06-10 19:20:00,
2013-06-10 15:22:00,64.7,61.1,30.11,SSW,209,1.0,3.0,88,0.02,,SKC,0.04,VWS V14.01,2013-06-10 19:22:00,
2013-06-10 15:23:00,64.7,61.1,30.11,SW,226,1.0,5.0,88,0.02,,SKC,0.04,VWS V14.01,2013-06-10 19:23:00,
2013-06-10 15:24:00,64.7,61.1,30.11,SW,224,2.0,5.0,88,0.02,,SKC,0.04,VWS V14.01,2013-06-10 19:24:00,
2013-06-10 15:25:00,64.5,60.9,30.11,SW,223,0.0,0.0,88,0.02,,SKC,0.04,VWS V14.01,2013-06-10 19:25:00,
2013-06-10 15:27:00,64.7,61.1,30.11,SSW,212,1.0,2.0,88,0.02,,SKC,0.04,VWS V14.01,2013-06-10 19:27:00,
2013-06-10 15:29:00,64.5,60.9,30.10,SSW,200,1.0,4.0,88,0.02,,SKC,0.04,VWS V14.01,2013-06-10 19:29:00,
2013-06-10 15:30:00,64.5,60.9,30.10,SSW,196,3.0,3.0,88,0.01,,SKC,0.04,VWS V14.01,2013-06-10 19:30:00,
2013-06-10 15:33:00,64.5,60.9,30.10,SSW,213,1.0,3.0,88,0.01,,SKC,0.04,VWS V14.01,2013-06-10 19:33:00,
2013-06-10 15:34:00,64.5,60.9,30.10,SW,217,0.0,3.0,88,0.01,,SKC,0.04,VWS V14.01,2013-06-10 19:34:00,
2013-06-10 15:35:00,64.5,60.9,30.10,SW,217,0.0,0.0,88,0.01,,SKC,0.04,VWS V14.01,2013-06-10 19:35:00,
2013-06-10 15:36:00,64.5,60.9,30.10,SW,215,0.0,0.0,88,0.01,,SKC,0.04,VWS V14.01,2013-06-10 19:36:00,
2013-06-10 15:39:00,64.5,61.2,30.10,SW,215,0.0,0.0,89,0.01,,SKC,0.04,VWS V14.01,2013-06-10 19:39:00,
2013-06-10 15:40:00,64.5,61.2,30.10,SW,215,0.0,0.0,89,0.01,,SKC,0.04,VWS V14.01,2013-06-10 19:40:00,
2013-06-10 15:41:00,64.5,61.2,30.10,SW,215,0.0,0.0,89,0.01,,SKC,0.04,VWS V14.01,2013-06-10 19:41:00,
2013-06-10 15:44:00,64.7,61.4,30.10,South,184,0.0,3.0,89,0.01,,SKC,0.04,VWS V14.01,2013-06-10 19:44:00,
2013-06-10 15:45:00,64.7,61.4,30.10,South,182,0.0,3.0,89,0.01,,SKC,0.04,VWS V14.01,2013-06-10 19:45:00,
2013-06-10 15:46:00,64.7,61.4,30.10,South,184,0.0,2.0,89,0.01,,SKC,0.04,VWS V14.01,2013-06-10 19:46:00,
2013-06-10 15:47:00,64.7,61.4,30.10,South,182,0.0,2.0,89,0.01,,SKC,0.04,VWS V14.01,2013-06-10 19:47:00,
2013-06-10 15:49:00,64.5,61.2,30.10,South,185,0.0,2.0,89,0.01,,SKC,0.04,VWS V14.01,2013-06-10 19:49:00,
2013-06-10 15:50:00,64.5,61.2,30.10,South,181,0.0,2.0,89,0.01,,SKC,0.04,VWS V14.01,2013-06-10 19:50:00,
2013-06-10 15:52:00,64.7,61.4,30.10,South,176,4.0,4.0,89,0.00,,SKC,0.04,VWS V14.01,2013-06-10 19:52:00,
2013-06-10 15:54:00,64.7,61.4,30.10,SSW,196,2.0,4.0,89,0.00,,SKC,0.04,VWS V14.01,2013-06-10 19:54:00,
2013-06-10 15:55:00,64.7,61.4,30.10,SSW,200,1.0,4.0,89,0.00,,SKC,0.04,VWS V14.01,2013-06-10 19:55:00,
2013-06-10 15:56:00,64.7,61.4,30.10,SSW,200,1.0,1.0,89,0.00,,SKC,0.04,VWS V14.01,2013-06-10 19:56:00,
2013-06-10 15:58:00,64.7,61.4,30.10,SSW,199,0.0,1.0,89,0.00,,SKC,0.04,VWS V14.01,2013-06-10 19:58:00,
2013-06-10 15:59:00,64.7,61.4,30.09,SSW,199,0.0,1.0,89,0.00,,SKC,0.04,VWS V14.01,2013-06-10 19:59:00,
2013-06-10 16:00:00,64.7,61.4,30.09,SSW,199,0.0,0.0,89,0.00,,SKC,0.04,VWS V14.01,2013-06-10 20:00:00,
2013-06-10 16:03:00,64.5,61.2,30.09,SW,220,5.0,6.0,89,0.00,,SKC,0.04,VWS V14.01,2013-06-10 20:03:00,
2013-06-10 16:05:00,64.3,61.0,30.09,SSW,212,3.0,3.0,89,0.00,,SKC,0.04,VWS V14.01,2013-06-10 20:05:00,
2013-06-10 16:08:00,64.2,60.9,30.09,SW,220,1.0,3.0,89,0.00,,SKC,0.04,VWS V14.01,2013-06-10 20:08:00,
2013-06-10 16:10:00,64.2,60.9,30.09,SW,216,1.0,3.0,89,0.00,,SKC,0.04,VWS V14.01,2013-06-10 20:10:00,
2013-06-10 16:13:00,64.0,60.7,30.09,SW,223,0.0,6.0,89,0.00,,SKC,0.04,VWS V14.01,2013-06-10 20:13:00,
2013-06-10 16:14:00,64.0,60.7,30.09,SW,216,0.0,6.0,89,0.00,,SKC,0.04,VWS V14.01,2013-06-10 20:14:00,
2013-06-10 16:15:00,64.0,60.7,30.09,SW,215,0.0,0.0,89,0.00,,SKC,0.04,VWS V14.01,2013-06-10 20:15:00,
2013-06-10 16:18:00,64.2,60.9,30.09,SSW,212,0.0,0.0,89,0.00,,SKC,0.04,VWS V14.01,2013-06-10 20:18:00,
2013-06-10 16:19:00,64.2,60.9,30.09,SSW,208,0.0,0.0,89,0.00,,SKC,0.04,VWS V14.01,2013-06-10 20:19:00,
2013-06-10 16:20:00,64.2,60.9,30.09,SSW,205,0.0,0.0,89,0.00,,SKC,0.04,VWS V14.01,2013-06-10 20:20:00,
2013-06-10 16:21:00,64.2,60.9,30.09,SSW,209,0.0,0.0,89,0.00,,SKC,0.04,VWS V14.01,2013-06-10 20:21:00,
2013-06-10 16:24:00,64.2,60.9,30.09,SSW,208,0.0,0.0,89,0.00,,SKC,0.04,VWS V14.01,2013-06-10 20:24:00,
2013-06-10 16:25:00,64.2,60.9,30.09,SSW,208,0.0,0.0,89,0.00,,SKC,0.04,VWS V14.01,2013-06-10 20:25:00,
2013-06-10 16:27:00,64.2,60.9,30.09,SSW,210,0.0,0.0,89,0.00,,SKC,0.04,VWS V14.01,2013-06-10 20:27:00,
2013-06-10 16:29:00,64.2,60.9,30.09,SSW,205,0.0,0.0,89,0.01,,SKC,0.05,VWS V14.01,2013-06-10 20:29:00,
2013-06-10 16:30:00,64.2,60.9,30.09,SSW,205,0.0,0.0,89,0.01,,SKC,0.05,VWS V14.01,2013-06-10 20:30:00,
2013-06-10 16:32:00,64.2,60.9,30.09,SW,219,0.0,0.0,89,0.01,,SKC,0.05,VWS V14.01,2013-06-10 20:32:00,
2013-06-10 16:34:00,64.2,60.9,30.09,SW,215,0.0,0.0,89,0.01,,SKC,0.05,VWS V14.01,2013-06-10 20:34:00,
2013-06-10 16:35:00,64.3,61.0,30.09,SW,215,0.0,0.0,89,0.01,,SKC,0.05,VWS V14.01,2013-06-10 20:35:00,
2013-06-10 16:37:00,64.3,61.3,30.09,SSW,213,0.0,0.0,90,0.01,,SKC,0.05,VWS V14.01,2013-06-10 20:37:00,
2013-06-10 16:40:00,64.5,61.5,30.09,SSW,213,0.0,0.0,90,0.01,,SKC,0.05,VWS V14.01,2013-06-10 20:40:00,
2013-06-10 16:42:00,64.5,61.5,30.09,SSW,212,0.0,0.0,90,0.01,,SKC,0.05,VWS V14.01,2013-06-10 20:42:00,
2013-06-10 16:43:00,64.5,61.5,30.09,SSW,212,0.0,0.0,90,0.01,,SKC,0.05,VWS V14.01,2013-06-10 20:43:00,
2013-06-10 16:45:00,64.5,61.5,30.08,SSW,203,0.0,1.0,90,0.01,,SKC,0.05,VWS V14.01,2013-06-10 20:45:00,
2013-06-10 16:46:00,64.5,61.5,30.08,SSW,195,0.0,0.0,90,0.01,,SKC,0.05,VWS V14.01,2013-06-10 20:46:00,
2013-06-10 16:48:00,64.3,61.3,30.08,SSE,161,0.0,4.0,90,0.01,,SKC,0.05,VWS V14.01,2013-06-10 20:48:00,
2013-06-10 16:49:00,64.2,61.2,30.08,South,175,0.0,4.0,90,0.01,,SKC,0.05,VWS V14.01,2013-06-10 20:49:00,
2013-06-10 16:50:00,64.2,61.2,30.08,SW,224,2.0,2.0,90,0.01,,SKC,0.05,VWS V14.01,2013-06-10 20:50:00,
2013-06-10 16:52:00,64.2,61.2,30.08,SW,217,1.0,4.0,90,0.01,,SKC,0.05,VWS V14.01,2013-06-10 20:52:00,
2013-06-10 16:53:00,64.0,61.0,30.08,SW,219,0.0,4.0,90,0.01,,SKC,0.05,VWS V14.01,2013-06-10 20:53:00,
2013-06-10 16:54:00,64.0,61.0,30.08,SW,216,0.0,4.0,90,0.01,,SKC,0.05,VWS V14.01,2013-06-10 20:54:00,
2013-06-10 16:55:00,64.0,61.0,30.08,SW,217,0.0,0.0,90,0.01,,SKC,0.05,VWS V14.01,2013-06-10 20:55:00,
2013-06-10 16:58:00,64.0,61.0,30.08,SW,222,0.0,0.0,90,0.02,,SKC,0.06,VWS V14.01,2013-06-10 20:58:00,
2013-06-10 16:59:00,63.9,60.9,30.08,SW,223,0.0,0.0,90,0.02,,SKC,0.06,VWS V14.01,2013-06-10 20:59:00,
2013-06-10 17:00:00,63.9,60.9,30.08,SW,222,1.0,5.0,90,0.02,,SKC,0.06,VWS V14.01,2013-06-10 21:00:00,
2013-06-10 17:03:00,63.7,60.7,30.08,SW,220,2.0,5.0,90,0.02,,SKC,0.06,VWS V14.01,2013-06-10 21:03:00,
2013-06-10 17:04:00,63.7,60.7,30.08,SSW,212,1.0,6.0,90,0.02,,SKC,0.06,VWS V14.01,2013-06-10 21:04:00,
2013-06-10 17:05:00,63.7,60.7,30.08,SSW,206,2.0,6.0,90,0.02,,SKC,0.06,VWS V14.01,2013-06-10 21:05:00,
2013-06-10 17:06:00,63.7,60.7,30.08,SSW,209,1.0,3.0,90,0.02,,SKC,0.06,VWS V14.01,2013-06-10 21:06:00,
2013-06-10 17:08:00,63.7,60.7,30.08,SSW,210,0.0,3.0,90,0.02,,SKC,0.06,VWS V14.01,2013-06-10 21:08:00,
2013-06-10 17:09:00,63.7,61.0,30.08,SSW,212,0.0,3.0,91,0.02,,SKC,0.06,VWS V14.01,2013-06-10 21:09:00,
2013-06-10 17:10:00,63.7,61.0,30.08,SSW,212,0.0,3.0,91,0.02,,SKC,0.06,VWS V14.01,2013-06-10 21:10:00,
2013-06-10 17:11:00,63.7,61.0,30.08,SSW,212,2.0,3.0,91,0.02,,SKC,0.06,VWS V14.01,2013-06-10 21:11:00,
2013-06-10 17:14:00,63.7,61.0,30.08,SW,216,2.0,5.0,91,0.02,,SKC,0.06,VWS V14.01,2013-06-10 21:14:00,
2013-06-10 17:15:00,63.5,60.8,30.07,SW,220,1.0,2.0,91,0.02,,SKC,0.06,VWS V14.01,2013-06-10 21:15:00,
2013-06-10 17:16:00,63.7,61.0,30.07,SW,219,0.0,2.0,91,0.02,,SKC,0.06,VWS V14.01,2013-06-10 21:16:00,
2013-06-10 17:19:00,63.9,61.2,30.07,SW,226,0.0,2.0,91,0.02,,SKC,0.06,VWS V14.01,2013-06-10 21:19:00,
2013-06-10 17:20:00,63.9,61.2,30.07,SW,229,0.0,2.0,91,0.02,,SKC,0.06,VWS V14.01,2013-06-10 21:20:00,
2013-06-10 17:23:00,63.7,61.0,30.07,SW,223,1.0,3.0,91,0.02,,SKC,0.06,VWS V14.01,2013-06-10 21:23:00,
2013-06-10 17:25:00,63.7,61.0,30.07,SW,223,0.0,3.0,91,0.02,,SKC,0.06,VWS V14.01,2013-06-10 21:25:00,
2013-06-10 17:26:00,63.7,61.0,30.07,SW,220,0.0,0.0,91,0.02,,SKC,0.06,VWS V14.01,2013-06-10 21:26:00,
2013-06-10 17:29:00,63.7,61.3,30.07,SSW,212,0.0,0.0,92,0.02,,SKC,0.06,VWS V14.01,2013-06-10 21:29:00,
2013-06-10 17:30:00,63.7,61.3,30.07,SSW,213,0.0,0.0,92,0.02,,SKC,0.06,VWS V14.01,2013-06-10 21:30:00,
2013-06-10 17:31:00,63.7,61.3,30.07,SSW,203,0.0,0.0,92,0.01,,SKC,0.06,VWS V14.01,2013-06-10 21:31:00,
2013-06-10 17:32:00,63.7,61.3,30.07,SW,220,0.0,0.0,92,0.01,,SKC,0.06,VWS V14.01,2013-06-10 21:32:00,
2013-06-10 17:35:00,63.5,61.1,30.07,SSW,195,0.0,0.0,92,0.02,,SKC,0.07,VWS V14.01,2013-06-10 21:35:00,
2013-06-10 17:36:00,63.5,61.1,30.07,South,191,0.0,3.0,92,0.02,,SKC,0.07,VWS V14.01,2013-06-10 21:36:00,
2013-06-10 17:37:00,63.5,61.1,30.07,SSW,192,1.0,3.0,92,0.02,,SKC,0.07,VWS V14.01,2013-06-10 21:37:00,
2013-06-10 17:40:00,63.5,61.1,30.07,South,182,0.0,0.0,92,0.02,,SKC,0.07,VWS V14.01,2013-06-10 21:40:00,
2013-06-10 17:42:00,63.4,61.0,30.07,SW,222,2.0,5.0,92,0.02,,SKC,0.07,VWS V14.01,2013-06-10 21:42:00,
2013-06-10 17:43:00,63.2,60.8,30.07,South,184,2.0,5.0,92,0.02,,SKC,0.07,VWS V14.01,2013-06-10 21:43:00,
2013-06-10 17:45:00,63.2,60.8,30.07,SW,226,3.0,3.0,92,0.02,,SKC,0.07,VWS V14.01,2013-06-10 21:45:00,
2013-06-10 17:47:00,63.1,60.7,30.07,SW,220,3.0,3.0,92,0.02,,SKC,0.07,VWS V14.01,2013-06-10 21:47:00,
2013-06-10 17:48:00,63.1,60.7,30.07,SW,220,2.0,3.0,92,0.02,,SKC,0.07,VWS V14.01,2013-06-10 21:48:00,
2013-06-10 17:49:00,63.1,60.7,30.07,SW,219,2.0,3.0,92,0.02,,SKC,0.07,VWS V14.01,2013-06-10 21:49:00,
2013-06-10 17:50:00,63.1,60.7,30.07,SW,220,2.0,2.0,92,0.02,,SKC,0.07,VWS V14.01,2013-06-10 21:50:00,
2013-06-10 17:52:00,63.1,60.7,30.07,South,185,1.0,5.0,92,0.02,,SKC,0.07,VWS V14.01,2013-06-10 21:52:00,
2013-06-10 17:53:00,62.9,60.5,30.07,SW,217,4.0,5.0,92,0.02,,SKC,0.07,VWS V14.01,2013-06-10 21:53:00,
2013-06-10 17:54:00,62.9,60.5,30.07,SW,219,0.0,5.0,92,0.02,,SKC,0.07,VWS V14.01,2013-06-10 21:54:00,
2013-06-10 17:57:00,62.9,60.5,30.07,SW,219,5.0,5.0,92,0.02,,SKC,0.07,VWS V14.01,2013-06-10 21:57:00,
2013-06-10 17:58:00,62.9,60.5,30.07,SW,217,3.0,5.0,92,0.02,,SKC,0.07,VWS V14.01,2013-06-10 21:58:00,
2013-06-10 17:59:00,62.9,60.5,30.05,SW,219,0.0,5.0,92,0.02,,SKC,0.07,VWS V14.01,2013-06-10 21:59:00,
2013-06-10 18:03:00,62.7,60.3,30.05,SW,227,2.0,5.0,92,0.01,,SKC,0.07,VWS V14.01,2013-06-10 22:03:00,
2013-06-10 18:04:00,62.7,60.3,30.05,SW,227,0.0,5.0,92,0.01,,SKC,0.07,VWS V14.01,2013-06-10 22:04:00,
2013-06-10 18:08:00,62.7,60.3,30.05,SW,223,0.0,2.0,92,0.01,,SKC,0.07,VWS V14.01,2013-06-10 22:08:00,
2013-06-10 18:09:00,62.7,60.3,30.05,SW,223,0.0,2.0,92,0.01,,SKC,0.07,VWS V14.01,2013-06-10 22:09:00,
2013-06-10 18:10:00,62.7,60.3,30.05,SW,222,0.0,2.0,92,0.01,,SKC,0.07,VWS V14.01,2013-06-10 22:10:00,
2013-06-10 18:13:00,62.6,60.2,30.05,SW,232,2.0,6.0,92,0.02,,SKC,0.08,VWS V14.01,2013-06-10 22:13:00,
2013-06-10 18:14:00,62.6,60.2,30.05,SW,232,1.0,6.0,92,0.02,,SKC,0.08,VWS V14.01,2013-06-10 22:14:00,
2013-06-10 18:15:00,62.6,60.2,30.05,SW,232,2.0,6.0,92,0.02,,SKC,0.08,VWS V14.01,2013-06-10 22:15:00,
2013-06-10 18:18:00,62.6,60.2,30.05,SW,234,0.0,3.0,92,0.02,,SKC,0.08,VWS V14.01,2013-06-10 22:18:00,
2013-06-10 18:19:00,62.6,60.2,30.05,SW,233,0.0,3.0,92,0.02,,SKC,0.08,VWS V14.01,2013-06-10 22:19:00,
2013-06-10 18:20:00,62.6,60.2,30.05,SW,234,0.0,0.0,92,0.02,,SKC,0.08,VWS V14.01,2013-06-10 22:20:00,
2013-06-10 18:24:00,62.6,60.2,30.05,SSW,212,0.0,0.0,92,0.02,,SKC,0.08,VWS V14.01,2013-06-10 22:24:00,
2013-06-10 18:27:00,62.7,60.3,30.05,SSW,192,0.0,0.0,92,0.02,,SKC,0.08,VWS V14.01,2013-06-10 22:27:00,
2013-06-10 18:29:00,62.7,60.3,30.05,South,188,0.0,0.0,92,0.02,,SKC,0.08,VWS V14.01,2013-06-10 22:29:00,
2013-06-10 18:32:00,62.6,60.2,30.05,SW,222,2.0,5.0,92,0.02,,SKC,0.08,VWS V14.01,2013-06-10 22:32:00,
2013-06-10 18:34:00,62.4,60.0,30.05,SW,222,1.0,5.0,92,0.02,,SKC,0.08,VWS V14.01,2013-06-10 22:34:00,
2013-06-10 18:37:00,62.4,60.3,30.05,SSW,202,0.0,3.0,93,0.01,,SKC,0.08,VWS V14.01,2013-06-10 22:37:00,
2013-06-10 18:38:00,62.4,60.3,30.05,South,191,2.0,6.0,93,0.01,,SKC,0.08,VWS V14.01,2013-06-10 22:38:00,
2013-06-10 18:40:00,62.4,60.0,30.05,SW,217,0.0,6.0,92,0.01,,SKC,0.08,VWS V14.01,2013-06-10 22:40:00,
2013-06-10 18:42:00,62.4,60.0,30.05,SW,222,0.0,0.0,92,0.01,,SKC,0.08,VWS V14.01,2013-06-10 22:42:00,
2013-06-10 18:44:00,62.3,60.0,30.05,SW,223,3.0,6.0,92,0.02,,SKC,0.09,VWS V14.01,2013-06-10 22:44:00,
2013-06-10 18:45:00,62.3,60.0,30.05,SW,219,2.0,6.0,92,0.02,,SKC,0.09,VWS V14.01,2013-06-10 22:45:00,
2013-06-10 18:48:00,62.3,60.2,30.05,SW,220,3.0,3.0,93,0.02,,SKC,0.09,VWS V14.01,2013-06-10 22:48:00,
2013-06-10 18:49:00,62.3,60.2,30.05,SSW,205,0.0,3.0,93,0.02,,SKC,0.09,VWS V14.01,2013-06-10 22:49:00,
2013-06-10 18:50:00,62.3,60.2,30.05,SSW,203,0.0,0.0,93,0.02,,SKC,0.09,VWS V14.01,2013-06-10 22:50:00,
2013-06-10 18:52:00,62.1,60.1,30.05,SSW,212,2.0,5.0,93,0.02,,SKC,0.09,VWS V14.01,2013-06-10 22:52:00,
2013-06-10 18:53:00,62.1,60.1,30.05,SW,222,0.0,5.0,93,0.03,,SKC,0.10,VWS V14.01,2013-06-10 22:53:00,
2013-06-10 18:54:00,62.1,60.1,30.05,SW,222,0.0,5.0,93,0.03,,SKC,0.10,VWS V14.01,2013-06-10 22:54:00,
2013-06-10 18:55:00,62.1,60.1,30.05,SW,222,0.0,0.0,93,0.03,,SKC,0.10,VWS V14.01,2013-06-10 22:55:00,
2013-06-10 18:58:00,62.1,60.1,30.05,SW,223,0.0,0.0,93,0.03,,SKC,0.10,VWS V14.01,2013-06-10 22:58:00,
2013-06-10 19:00:00,62.1,60.1,30.06,SW,223,0.0,0.0,93,0.03,,SKC,0.10,VWS V14.01,2013-06-10 23:00:00,
2013-06-10 19:03:00,62.1,60.1,30.06,SW,217,0.0,0.0,93,0.03,,SKC,0.10,VWS V14.01,2013-06-10 23:03:00,
2013-06-10 19:04:00,62.1,60.1,30.06,SW,216,0.0,0.0,93,0.04,,SKC,0.11,VWS V14.01,2013-06-10 23:04:00,
2013-06-10 19:05:00,62.1,60.1,30.06,SW,216,0.0,0.0,93,0.04,,SKC,0.11,VWS V14.01,2013-06-10 23:05:00,
2013-06-10 19:06:00,62.0,60.0,30.06,SW,216,0.0,0.0,93,0.04,,SKC,0.11,VWS V14.01,2013-06-10 23:06:00,
2013-06-10 19:08:00,62.0,60.0,30.06,SW,217,0.0,0.0,93,0.04,,SKC,0.11,VWS V14.01,2013-06-10 23:08:00,
2013-06-10 19:09:00,62.0,60.0,30.06,SW,216,0.0,0.0,93,0.04,,SKC,0.11,VWS V14.01,2013-06-10 23:09:00,
2013-06-10 19:10:00,62.0,60.0,30.06,SW,220,1.0,3.0,93,0.05,,SKC,0.12,VWS V14.01,2013-06-10 23:10:00,
2013-06-10 19:11:00,62.0,60.0,30.06,SW,219,0.0,3.0,93,0.05,,SKC,0.12,VWS V14.01,2013-06-10 23:11:00,
2013-06-10 19:13:00,61.8,59.8,30.06,SW,217,0.0,5.0,93,0.05,,SKC,0.12,VWS V14.01,2013-06-10 23:13:00,
2013-06-10 19:15:00,61.8,59.8,30.05,SW,222,0.0,5.0,93,0.05,,SKC,0.12,VWS V14.01,2013-06-10 23:15:00,
2013-06-10 19:16:00,61.8,59.8,30.05,SW,220,0.0,0.0,93,0.04,,SKC,0.12,VWS V14.01,2013-06-10 23:16:00,
2013-06-10 19:18:00,61.6,59.6,30.05,SSW,206,2.0,3.0,93,0.04,,SKC,0.12,VWS V14.01,2013-06-10 23:18:00,
2013-06-10 19:21:00,61.6,59.6,30.05,SSW,203,1.0,6.0,93,0.05,,SKC,0.13,VWS V14.01,2013-06-10 23:21:00,
2013-06-10 19:22:00,61.5,59.5,30.05,SW,222,1.0,6.0,93,0.05,,SKC,0.13,VWS V14.01,2013-06-10 23:22:00,
2013-06-10 19:23:00,61.5,59.5,30.05,SW,219,3.0,6.0,93,0.05,,SKC,0.13,VWS V14.01,2013-06-10 23:23:00,
2013-06-10 19:26:00,61.5,59.5,30.05,SSW,209,0.0,0.0,93,0.05,,SKC,0.13,VWS V14.01,2013-06-10 23:26:00,
2013-06-10 19:27:00,61.5,59.5,30.05,SSW,203,0.0,1.0,93,0.05,,SKC,0.13,VWS V14.01,2013-06-10 23:27:00,
2013-06-10 19:28:00,61.5,59.5,30.05,SW,216,0.0,2.0,93,0.05,,SKC,0.13,VWS V14.01,2013-06-10 23:28:00,
2013-06-10 19:31:00,61.3,59.3,30.04,SSW,206,0.0,2.0,93,0.05,,SKC,0.13,VWS V14.01,2013-06-10 23:31:00,
2013-06-10 19:32:00,61.3,59.3,30.04,SSW,205,0.0,2.0,93,0.05,,SKC,0.13,VWS V14.01,2013-06-10 23:32:00,
2013-06-10 19:33:00,61.3,59.3,30.04,SSW,206,0.0,2.0,93,0.06,,SKC,0.14,VWS V14.01,2013-06-10 23:33:00,
2013-06-10 19:34:00,61.3,59.3,30.04,SSW,193,3.0,3.0,93,0.06,,SKC,0.14,VWS V14.01,2013-06-10 23:34:00,
2013-06-10 19:37:00,61.2,59.2,30.04,South,191,0.0,2.0,93,0.06,,SKC,0.14,VWS V14.01,2013-06-10 23:37:00,
2013-06-10 19:38:00,61.2,59.2,30.04,SSW,192,0.0,2.0,93,0.06,,SKC,0.14,VWS V14.01,2013-06-10 23:38:00,
2013-06-10 19:39:00,61.2,59.2,30.04,South,189,0.0,2.0,93,0.06,,SKC,0.14,VWS V14.01,2013-06-10 23:39:00,
2013-06-10 19:40:00,61.2,59.2,30.04,South,191,0.0,2.0,93,0.06,,SKC,0.14,VWS V14.01,2013-06-10 23:40:00,
2013-06-10 19:42:00,61.0,59.0,30.04,SSW,209,0.0,1.0,93,0.06,,SKC,0.14,VWS V14.01,2013-06-10 23:42:00,
2013-06-10 19:43:00,61.0,59.0,30.04,SSW,192,3.0,3.0,93,0.06,,SKC,0.14,VWS V14.01,2013-06-10 23:43:00,
2013-06-10 19:44:00,60.9,58.9,30.04,SSW,195,1.0,6.0,93,0.06,,SKC,0.14,VWS V14.01,2013-06-10 23:44:00,
2013-06-10 19:45:00,60.9,58.9,30.04,SSW,193,0.0,6.0,93,0.06,,SKC,0.14,VWS V14.01,2013-06-10 23:45:00,
2013-06-10 19:48:00,60.7,58.7,30.04,South,186,0.0,3.0,93,0.06,,SKC,0.15,VWS V14.01,2013-06-10 23:48:00,
2013-06-10 19:49:00,60.7,58.7,30.04,South,186,0.0,3.0,93,0.06,,SKC,0.15,VWS V14.01,2013-06-10 23:49:00,
2013-06-10 19:50:00,60.7,58.7,30.04,South,186,0.0,0.0,93,0.06,,SKC,0.15,VWS V14.01,2013-06-10 23:50:00,
2013-06-10 19:54:00,60.5,58.5,30.04,SW,215,0.0,2.0,93,0.06,,SKC,0.15,VWS V14.01,2013-06-10 23:54:00,
2013-06-10 19:55:00,60.5,58.5,30.04,SW,215,0.0,0.0,93,0.06,,SKC,0.16,VWS V14.01,2013-06-10 23:55:00,
2013-06-10 19:56:00,60.5,58.5,30.04,SSW,213,0.0,0.0,93,0.06,,SKC,0.16,VWS V14.01,2013-06-10 23:56:00,
2013-06-10 19:59:00,60.4,58.4,30.03,SW,222,6.0,6.0,93,0.06,,SKC,0.16,VWS V14.01,2013-06-10 23:59:00,
2013-06-10 20:00:00,60.2,58.2,30.03,SW,219,5.0,7.0,93,0.06,,SKC,0.16,VWS V14.01,2013-06-11 00:00:00,
2013-06-10 20:01:00,60.2,58.2,30.03,SSW,199,3.0,7.0,93,0.06,,SKC,0.16,VWS V14.01,2013-06-11 00:01:00,
2013-06-10 20:02:00,60.1,58.1,30.03,SSW,205,1.0,7.0,93,0.06,,SKC,0.16,VWS V14.01,2013-06-11 00:02:00,
2013-06-10 20:05:00,60.1,58.1,30.03,SSW,199,0.0,0.0,93,0.05,,SKC,0.16,VWS V14.01,2013-06-11 00:05:00,
2013-06-10 20:06:00,60.1,58.1,30.03,SW,219,3.0,3.0,93,0.06,,SKC,0.17,VWS V14.01,2013-06-11 00:06:00,
2013-06-10 20:08:00,60.1,58.1,30.03,South,169,0.0,5.0,93,0.06,,SKC,0.17,VWS V14.01,2013-06-11 00:08:00,
2013-06-10 20:10:00,59.9,57.9,30.03,SW,219,1.0,2.0,93,0.06,,SKC,0.17,VWS V14.01,2013-06-11 00:10:00,
2013-06-10 20:11:00,59.9,57.9,30.03,SSW,210,1.0,3.0,93,0.07,,SKC,0.18,VWS V14.01,2013-06-11 00:11:00,
2013-06-10 20:12:00,59.9,57.9,30.03,SSW,212,2.0,3.0,93,0.07,,SKC,0.18,VWS V14.01,2013-06-11 00:12:00,
2013-06-10 20:13:00,59.9,57.9,30.03,SSW,209,0.0,3.0,93,0.07,,SKC,0.18,VWS V14.01,2013-06-11 00:13:00,
2013-06-10 20:15:00,59.9,57.9,30.02,WSW,237,2.0,4.0,93,0.06,,SKC,0.18,VWS V14.01,2013-06-11 00:15:00,
2013-06-10 20:17:00,59.9,58.2,30.02,SW,223,3.0,4.0,94,0.06,,SKC,0.18,VWS V14.01,2013-06-11 00:17:00,
2013-06-10 20:18:00,59.8,58.1,30.02,SW,217,3.0,5.0,94,0.06,,SKC,0.18,VWS V14.01,2013-06-11 00:18:00,
2013-06-10 20:19:00,59.8,57.8,30.02,SW,215,3.0,5.0,93,0.06,,SKC,0.18,VWS V14.01,2013-06-11 00:19:00,
2013-06-10 20:21:00,59.8,57.8,30.02,SSW,212,0.0,0.0,93,0.05,,SKC,0.18,VWS V14.01,2013-06-11 00:21:00,
2013-06-10 20:23:00,59.6,57.9,30.02,SW,226,0.0,3.0,94,0.06,,SKC,0.19,VWS V14.01,2013-06-11 00:23:00,
2013-06-10 20:24:00,59.6,57.9,30.02,SW,227,0.0,3.0,94,0.06,,SKC,0.19,VWS V14.01,2013-06-11 00:24:00,
2013-06-10 20:26:00,59.6,57.9,30.02,SW,222,5.0,6.0,94,0.06,,SKC,0.19,VWS V14.01,2013-06-11 00:26:00,
2013-06-10 20:28:00,59.6,57.9,30.02,SSW,203,1.0,6.0,94,0.07,,SKC,0.20,VWS V14.01,2013-06-11 00:28:00,
2013-06-10 20:29:00,59.6,57.9,30.01,SSW,202,2.0,6.0,94,0.07,,SKC,0.20,VWS V14.01,2013-06-11 00:29:00,
2013-06-10 20:31:00,59.6,57.9,30.01,SSW,193,1.0,3.0,94,0.07,,SKC,0.20,VWS V14.01,2013-06-11 00:31:00,
2013-06-10 20:33:00,59.6,57.9,30.01,SSW,195,2.0,8.0,94,0.07,,SKC,0.20,VWS V14.01,2013-06-11 00:33:00,
2013-06-10 20:34:00,59.6,57.9,30.01,SW,219,2.0,8.0,94,0.07,,SKC,0.20,VWS V14.01,2013-06-11 00:34:00,
2013-06-10 20:35:00,59.6,57.9,30.01,SSW,203,0.0,8.0,94,0.07,,SKC,0.20,VWS V14.01,2013-06-11 00:35:00,
2013-06-10 20:36:00,59.5,57.8,30.01,SW,222,0.0,5.0,94,0.06,,SKC,0.20,VWS V14.01,2013-06-11 00:36:00,
2013-06-10 20:38:00,59.5,57.8,30.01,SSW,213,2.0,5.0,94,0.06,,SKC,0.20,VWS V14.01,2013-06-11 00:38:00,
2013-06-10 20:39:00,59.5,57.8,30.01,SW,222,8.0,8.0,94,0.06,,SKC,0.20,VWS V14.01,2013-06-11 00:39:00,
2013-06-10 20:40:00,59.5,57.8,30.01,SW,220,3.0,8.0,94,0.06,,SKC,0.20,VWS V14.01,2013-06-11 00:40:00,
2013-06-10 20:42:00,59.5,57.8,30.01,SW,217,1.0,7.0,94,0.06,,SKC,0.20,VWS V14.01,2013-06-11 00:42:00,
2013-06-10 20:44:00,59.5,57.8,30.01,SW,217,0.0,7.0,94,0.06,,SKC,0.20,VWS V14.01,2013-06-11 00:44:00,
2013-06-10 20:45:00,59.5,57.8,30.01,SSW,208,0.0,0.0,94,0.06,,SKC,0.20,VWS V14.01,2013-06-11 00:45:00,
2013-06-10 20:48:00,59.5,57.8,30.01,SW,223,1.0,7.0,94,0.07,,SKC,0.21,VWS V14.01,2013-06-11 00:48:00,
2013-06-10 20:49:00,59.5,57.8,30.01,SW,222,0.0,7.0,94,0.07,,SKC,0.21,VWS V14.01,2013-06-11 00:49:00,
2013-06-10 20:50:00,59.5,57.8,30.01,SW,217,5.0,7.0,94,0.07,,SKC,0.21,VWS V14.01,2013-06-11 00:50:00,
2013-06-10 20:54:00,59.3,57.6,30.01,SW,219,2.0,6.0,94,0.06,,SKC,0.21,VWS V14.01,2013-06-11 00:54:00,
2013-06-10 20:55:00,59.3,57.6,30.01,SSW,213,2.0,3.0,94,0.05,,SKC,0.21,VWS V14.01,2013-06-11 00:55:00,
2013-06-10 20:59:00,59.3,57.6,30.00,SSW,213,3.0,7.0,94,0.06,,SKC,0.22,VWS V14.01,2013-06-11 00:59:00,
2013-06-10 21:00:00,59.3,57.6,30.00,SW,216,2.0,2.0,94,0.06,,SKC,0.22,VWS V14.01,2013-06-11 01:00:00,
2013-06-10 21:01:00,59.3,57.6,30.00,SW,216,3.0,5.0,94,0.06,,SKC,0.22,VWS V14.01,2013-06-11 01:01:00,
2013-06-10 21:05:00,59.3,57.6,30.00,SW,216,0.0,6.0,94,0.06,,SKC,0.22,VWS V14.01,2013-06-11 01:05:00,
2013-06-10 21:06:00,59.2,57.5,30.00,SW,224,2.0,5.0,94,0.06,,SKC,0.22,VWS V14.01,2013-06-11 01:06:00,
2013-06-10 21:07:00,59.2,57.5,30.00,SW,232,2.0,5.0,94,0.06,,SKC,0.22,VWS V14.01,2013-06-11 01:07:00,
2013-06-10 21:10:00,59.2,57.5,30.00,SW,215,6.0,6.0,94,0.06,,SKC,0.22,VWS V14.01,2013-06-11 01:10:00,
2013-06-10 21:11:00,59.2,57.5,30.00,SW,222,6.0,10.0,94,0.05,,SKC,0.22,VWS V14.01,2013-06-11 01:11:00,
2013-06-10 21:12:00,59.2,57.5,30.00,SSW,212,0.0,10.0,94,0.05,,SKC,0.22,VWS V14.01,2013-06-11 01:12:00,
2013-06-10 21:15:00,59.2,57.5,29.99,SSW,213,3.0,3.0,94,0.05,,SKC,0.23,VWS V14.01,2013-06-11 01:15:00,
2013-06-10 21:16:00,59.2,57.5,29.99,SW,217,4.0,6.0,94,0.05,,SKC,0.23,VWS V14.01,2013-06-11 01:16:00,
2013-06-10 21:17:00,59.2,57.5,29.99,SW,226,4.0,6.0,94,0.05,,SKC,0.23,VWS V14.01,2013-06-11 01:17:00,
2013-06-10 21:18:00,59.0,57.3,29.99,SW,215,2.0,6.0,94,0.05,,SKC,0.23,VWS V14.01,2013-06-11 01:18:00,
2013-06-10 21:20:00,59.0,57.3,29.99,SW,223,1.0,2.0,94,0.05,,SKC,0.23,VWS V14.01,2013-06-11 01:20:00,
2013-06-10 21:21:00,59.0,57.3,29.99,SW,222,3.0,3.0,94,0.05,,SKC,0.23,VWS V14.01,2013-06-11 01:21:00,
2013-06-10 21:22:00,59.0,57.3,29.99,SW,217,1.0,5.0,94,0.05,,SKC,0.23,VWS V14.01,2013-06-11 01:22:00,
2013-06-10 21:23:00,59.0,57.3,29.99,SSW,213,2.0,5.0,94,0.05,,SKC,0.23,VWS V14.01,2013-06-11 01:23:00,
2013-06-10 21:25:00,59.0,57.3,29.99,SW,222,5.0,6.0,94,0.04,,SKC,0.23,VWS V14.01,2013-06-11 01:25:00,
2013-06-10 21:26:00,58.9,57.2,29.99,SW,222,2.0,6.0,94,0.04,,SKC,0.23,VWS V14.01,2013-06-11 01:26:00,
2013-06-10 21:27:00,58.9,57.2,29.99,SW,219,0.0,6.0,94,0.04,,SKC,0.23,VWS V14.01,2013-06-11 01:27:00,
2013-06-10 21:28:00,58.9,57.2,29.99,SW,222,0.0,6.0,94,0.04,,SKC,0.23,VWS V14.01,2013-06-11 01:28:00,
2013-06-10 21:31:00,58.9,57.2,29.99,SW,216,1.0,3.0,94,0.03,,SKC,0.23,VWS V14.01,2013-06-11 01:31:00,
2013-06-10 21:32:00,58.9,57.2,29.99,SW,217,5.0,6.0,94,0.04,,SKC,0.24,VWS V14.01,2013-06-11 01:32:00,
2013-06-10 21:33:00,58.9,57.2,29.99,SW,220,2.0,6.0,94,0.04,,SKC,0.24,VWS V14.01,2013-06-11 01:33:00,
2013-06-10 21:36:00,58.9,57.2,29.99,SW,222,6.0,6.0,94,0.04,,SKC,0.24,VWS V14.01,2013-06-11 01:36:00,
2013-06-10 21:37:00,58.7,57.0,29.99,SW,217,7.0,10.0,94,0.04,,SKC,0.24,VWS V14.01,2013-06-11 01:37:00,
2013-06-10 21:38:00,58.7,57.0,29.99,SSW,212,7.0,10.0,94,0.04,,SKC,0.24,VWS V14.01,2013-06-11 01:38:00,
2013-06-10 21:42:00,58.7,57.0,29.99,SW,233,1.0,4.0,94,0.05,,SKC,0.25,VWS V14.01,2013-06-11 01:42:00,
2013-06-10 21:43:00,58.7,57.0,29.99,SSW,206,3.0,8.0,94,0.05,,SKC,0.25,VWS V14.01,2013-06-11 01:43:00,
2013-06-10 21:44:00,58.7,57.0,29.99,SSW,210,3.0,8.0,94,0.05,,SKC,0.25,VWS V14.01,2013-06-11 01:44:00,
2013-06-10 21:47:00,58.6,56.9,29.99,SW,222,2.0,6.0,94,0.06,,SKC,0.26,VWS V14.01,2013-06-11 01:47:00,
2013-06-10 21:49:00,58.6,56.9,29.99,SE,140,0.0,6.0,94,0.06,,SKC,0.26,VWS V14.01,2013-06-11 01:49:00,
2013-06-10 21:52:00,58.6,56.9,29.99,SW,229,0.0,5.0,94,0.05,,SKC,0.26,VWS V14.01,2013-06-11 01:52:00,
2013-06-10 21:53:00,58.6,56.9,29.99,SW,229,0.0,5.0,94,0.05,,SKC,0.26,VWS V14.01,2013-06-11 01:53:00,
2013-06-10 21:54:00,58.4,56.7,29.99,SW,229,7.0,8.0,94,0.05,,SKC,0.26,VWS V14.01,2013-06-11 01:54:00,
2013-06-10 21:55:00,58.4,56.7,29.99,SW,215,4.0,8.0,94,0.05,,SKC,0.26,VWS V14.01,2013-06-11 01:55:00,
2013-06-10 21:58:00,58.4,56.7,29.99,SSW,208,1.0,6.0,94,0.06,,SKC,0.27,VWS V14.01,2013-06-11 01:58:00,
2013-06-10 21:59:00,58.4,56.7,29.99,South,188,0.0,6.0,94,0.07,,SKC,0.28,VWS V14.01,2013-06-11 01:59:00,
2013-06-10 22:00:00,58.4,56.7,29.99,SSW,199,2.0,6.0,94,0.07,,SKC,0.28,VWS V14.01,2013-06-11 02:00:00,
2013-06-10 22:03:00,58.4,56.7,29.99,SW,215,0.0,4.0,94,0.08,,SKC,0.30,VWS V14.01,2013-06-11 02:03:00,
2013-06-10 22:04:00,58.4,56.7,29.99,SW,224,5.0,5.0,94,0.09,,SKC,0.31,VWS V14.01,2013-06-11 02:04:00,
2013-06-10 22:05:00,58.3,56.6,29.99,SSW,209,0.0,0.0,94,0.10,,SKC,0.32,VWS V14.01,2013-06-11 02:05:00,
2013-06-10 22:08:00,58.3,56.6,29.99,SW,219,3.0,6.0,94,0.11,,SKC,0.33,VWS V14.01,2013-06-11 02:08:00,
2013-06-10 22:09:00,58.3,56.6,29.99,SSW,196,0.0,6.0,94,0.11,,SKC,0.33,VWS V14.01,2013-06-11 02:09:00,
2013-06-10 22:10:00,58.3,56.6,29.99,SSW,196,0.0,6.0,94,0.11,,SKC,0.33,VWS V14.01,2013-06-11 02:10:00,
2013-06-10 22:11:00,58.3,56.6,29.99,SSW,196,0.0,0.0,94,0.11,,SKC,0.33,VWS V14.01,2013-06-11 02:11:00,
2013-06-10 22:13:00,58.3,56.6,29.99,SSW,195,0.0,0.0,94,0.12,,SKC,0.34,VWS V14.01,2013-06-11 02:13:00,
2013-06-10 22:14:00,58.3,56.6,29.99,SSW,209,2.0,2.0,94,0.12,,SKC,0.34,VWS V14.01,2013-06-11 02:14:00,
2013-06-10 22:15:00,58.3,56.6,29.99,SSW,213,0.0,0.0,94,0.11,,SKC,0.34,VWS V14.01,2013-06-11 02:15:00,
2013-06-10 22:17:00,58.3,56.6,29.99,South,189,0.0,0.0,94,0.11,,SKC,0.34,VWS V14.01,2013-06-11 02:17:00,
2013-06-10 22:19:00,58.1,56.4,29.99,SW,216,0.0,6.0,94,0.12,,SKC,0.35,VWS V14.01,2013-06-11 02:19:00,
2013-06-10 22:22:00,58.1,56.4,29.99,SW,216,0.0,0.0,94,0.12,,SKC,0.35,VWS V14.01,2013-06-11 02:22:00,
2013-06-10 22:24:00,58.1,56.4,29.99,SW,217,0.0,0.0,94,0.13,,SKC,0.36,VWS V14.01,2013-06-11 02:24:00,
2013-06-10 22:27:00,58.1,56.4,29.99,SSW,199,0.0,4.0,94,0.13,,SKC,0.36,VWS V14.01,2013-06-11 02:27:00,
2013-06-10 22:28:00,58.1,56.4,29.99,SSW,199,0.0,4.0,94,0.13,,SKC,0.36,VWS V14.01,2013-06-11 02:28:00,
2013-06-10 22:29:00,58.1,56.4,29.99,SSW,199,0.0,4.0,94,0.13,,SKC,0.36,VWS V14.01,2013-06-11 02:29:00,
2013-06-10 22:32:00,58.1,56.4,29.99,South,186,0.0,0.0,94,0.14,,SKC,0.37,VWS V14.01,2013-06-11 02:32:00,
2013-06-10 22:33:00,58.1,56.4,29.99,South,188,0.0,0.0,94,0.15,,SKC,0.38,VWS V14.01,2013-06-11 02:33:00,
2013-06-10 22:34:00,58.1,56.7,29.99,SSW,202,0.0,0.0,95,0.15,,SKC,0.38,VWS V14.01,2013-06-11 02:34:00,
2013-06-10 22:35:00,58.1,56.7,29.99,SSW,200,0.0,0.0,95,0.15,,SKC,0.38,VWS V14.01,2013-06-11 02:35:00,
2013-06-10 22:37:00,58.0,56.6,29.99,SW,215,5.0,6.0,95,0.15,,SKC,0.39,VWS V14.01,2013-06-11 02:37:00,
2013-06-10 22:38:00,58.0,56.3,29.99,SW,219,3.0,6.0,94,0.15,,SKC,0.39,VWS V14.01,2013-06-11 02:38:00,
2013-06-10 22:39:00,58.0,56.3,29.99,SW,216,1.0,6.0,94,0.16,,SKC,0.40,VWS V14.01,2013-06-11 02:39:00,
2013-06-10 22:40:00,58.0,56.3,29.99,SW,219,5.0,6.0,94,0.16,,SKC,0.40,VWS V14.01,2013-06-11 02:40:00,
2013-06-10 22:43:00,57.8,56.4,29.99,SW,220,6.0,6.0,95,0.15,,SKC,0.40,VWS V14.01,2013-06-11 02:43:00,
2013-06-10 22:45:00,57.8,56.4,29.98,SSW,205,2.0,6.0,95,0.16,,SKC,0.41,VWS V14.01,2013-06-11 02:45:00,
2013-06-10 22:46:00,57.8,56.4,29.98,SW,219,1.0,2.0,95,0.15,,SKC,0.41,VWS V14.01,2013-06-11 02:46:00,
2013-06-10 22:47:00,57.8,56.4,29.98,SW,215,3.0,3.0,95,0.16,,SKC,0.42,VWS V14.01,2013-06-11 02:47:00,
2013-06-10 22:48:00,57.8,56.4,29.98,SW,230,3.0,4.0,95,0.16,,SKC,0.42,VWS V14.01,2013-06-11 02:48:00,
2013-06-10 22:50:00,57.8,56.4,29.98,SW,223,0.0,0.0,95,0.17,,SKC,0.43,VWS V14.01,2013-06-11 02:50:00,
2013-06-10 22:51:00,57.8,56.4,29.98,SW,222,0.0,0.0,95,0.17,,SKC,0.43,VWS V14.01,2013-06-11 02:51:00,
2013-06-10 22:52:00,57.8,56.4,29.98,SW,222,1.0,2.0,95,0.18,,SKC,0.44,VWS V14.01,2013-06-11 02:52:00,
2013-06-10 22:53:00,57.8,56.4,29.98,SW,220,0.0,2.0,95,0.18,,SKC,0.44,VWS V14.01,2013-06-11 02:53:00,
2013-06-10 22:55:00,57.8,56.4,29.98,SW,217,2.0,3.0,95,0.18,,SKC,0.45,VWS V14.01,2013-06-11 02:55:00,
2013-06-10 22:56:00,57.8,56.4,29.98,SW,219,2.0,3.0,95,0.18,,SKC,0.45,VWS V14.01,2013-06-11 02:56:00,
2013-06-10 22:58:00,57.8,56.4,29.98,SW,223,6.0,6.0,95,0.19,,SKC,0.46,VWS V14.01,2013-06-11 02:58:00,
2013-06-10 23:01:00,57.8,56.4,29.98,SSW,213,3.0,5.0,95,0.20,,SKC,0.01,VWS V14.01,2013-06-11 03:01:00,
2013-06-10 23:03:00,57.8,56.4,29.98,SW,224,0.0,5.0,95,0.22,,SKC,0.03,VWS V14.01,2013-06-11 03:03:00,
2013-06-10 23:04:00,57.8,56.4,29.98,SW,229,0.0,5.0,95,0.22,,SKC,0.03,VWS V14.01,2013-06-11 03:04:00,
2013-06-10 23:06:00,57.6,56.2,29.98,SSW,209,1.0,6.0,95,0.19,,SKC,0.04,VWS V14.01,2013-06-11 03:06:00,
2013-06-10 23:07:00,57.6,56.2,29.98,SSW,208,0.0,6.0,95,0.19,,SKC,0.04,VWS V14.01,2013-06-11 03:07:00,
2013-06-10 23:09:00,57.8,56.4,29.98,SSW,206,0.0,6.0,95,0.19,,SKC,0.04,VWS V14.01,2013-06-11 03:09:00,
2013-06-10 23:10:00,57.8,56.4,29.98,SSW,210,1.0,6.0,95,0.20,,SKC,0.05,VWS V14.01,2013-06-11 03:10:00,
2013-06-10 23:12:00,57.6,56.2,29.98,SSW,208,3.0,3.0,95,0.19,,SKC,0.05,VWS V14.01,2013-06-11 03:12:00,
2013-06-10 23:13:00,57.6,56.2,29.98,SSW,209,0.0,3.0,95,0.19,,SKC,0.05,VWS V14.01,2013-06-11 03:13:00,
2013-06-10 23:14:00,57.6,56.2,29.98,SSW,206,0.0,3.0,95,0.19,,SKC,0.05,VWS V14.01,2013-06-11 03:14:00,
2013-06-10 23:15:00,57.8,56.4,29.98,SSW,209,1.0,1.0,95,0.19,,SKC,0.06,VWS V14.01,2013-06-11 03:15:00,
2013-06-10 23:17:00,57.6,56.2,29.98,SW,222,0.0,4.0,95,0.19,,SKC,0.06,VWS V14.01,2013-06-11 03:17:00,
2013-06-10 23:18:00,57.6,56.2,29.98,SW,222,0.0,4.0,95,0.19,,SKC,0.06,VWS V14.01,2013-06-11 03:18:00,
2013-06-10 23:19:00,57.8,56.4,29.98,SSW,206,3.0,4.0,95,0.20,,SKC,0.07,VWS V14.01,2013-06-11 03:19:00,
2013-06-10 23:20:00,57.6,56.2,29.98,SSW,209,3.0,3.0,95,0.19,,SKC,0.07,VWS V14.01,2013-06-11 03:20:00,
2013-06-10 23:22:00,57.6,56.2,29.98,SSW,212,6.0,7.0,95,0.19,,SKC,0.07,VWS V14.01,2013-06-11 03:22:00,
2013-06-10 23:23:00,57.6,56.2,29.98,SW,217,3.0,7.0,95,0.19,,SKC,0.07,VWS V14.01,2013-06-11 03:23:00,
2013-06-10 23:24:00,57.6,56.2,29.98,SW,216,1.0,7.0,95,0.20,,SKC,0.08,VWS V14.01,2013-06-11 03:24:00,
2013-06-10 23:25:00,57.6,56.2,29.98,SW,217,4.0,7.0,95,0.19,,SKC,0.08,VWS V14.01,2013-06-11 03:25:00,
2013-06-10 23:26:00,57.6,56.2,29.98,SSW,213,2.0,7.0,95,0.19,,SKC,0.08,VWS V14.01,2013-06-11 03:26:00,
2013-06-10 23:27:00,57.6,56.2,29.98,SSW,212,5.0,7.0,95,0.19,,SKC,0.08,VWS V14.01,2013-06-11 03:27:00,
2013-06-10 23:29:00,57.6,56.2,29.98,SSW,212,3.0,7.0,95,0.20,,SKC,0.09,VWS V14.01,2013-06-11 03:29:00,
2013-06-10 23:30:00,57.6,56.2,29.97,SSW,202,3.0,5.0,95,0.20,,SKC,0.09,VWS V14.01,2013-06-11 03:30:00,
2013-06-10 23:32:00,57.6,56.2,29.97,SW,215,0.0,5.0,95,0.20,,SKC,0.09,VWS V14.01,2013-06-11 03:32:00,
2013-06-10 23:33:00,57.6,56.2,29.97,SSW,210,2.0,5.0,95,0.21,,SKC,0.10,VWS V14.01,2013-06-11 03:33:00,
2013-06-10 23:34:00,57.6,56.2,29.97,SSW,212,0.0,7.0,95,0.21,,SKC,0.10,VWS V14.01,2013-06-11 03:34:00,
2013-06-10 23:37:00,57.6,56.2,29.97,SW,215,5.0,8.0,95,0.20,,SKC,0.11,VWS V14.01,2013-06-11 03:37:00,
2013-06-10 23:38:00,57.6,56.2,29.97,SW,220,3.0,8.0,95,0.20,,SKC,0.11,VWS V14.01,2013-06-11 03:38:00,
2013-06-10 23:39:00,57.6,56.2,29.97,SW,219,4.0,8.0,95,0.20,,SKC,0.11,VWS V14.01,2013-06-11 03:39:00,
2013-06-10 23:40:00,57.6,56.2,29.97,SW,217,2.0,3.0,95,0.19,,SKC,0.12,VWS V14.01,2013-06-11 03:40:00,
2013-06-10 23:42:00,57.6,56.2,29.97,SW,217,0.0,5.0,95,0.19,,SKC,0.12,VWS V14.01,2013-06-11 03:42:00,
2013-06-10 23:43:00,57.6,56.2,29.97,South,175,1.0,5.0,95,0.20,,SKC,0.13,VWS V14.01,2013-06-11 03:43:00,
2013-06-10 23:44:00,57.6,56.2,29.97,SW,224,2.0,5.0,95,0.20,,SKC,0.13,VWS V14.01,2013-06-11 03:44:00,
2013-06-10 23:45:00,57.6,56.2,29.97,SW,224,0.0,0.0,95,0.19,,SKC,0.13,VWS V14.01,2013-06-11 03:45:00,
2013-06-10 23:47:00,57.5,56.1,29.97,SW,222,0.0,4.0,95,0.19,,SKC,0.13,VWS V14.01,2013-06-11 03:47:00,
2013-06-10 23:48:00,57.5,56.1,29.97,SSW,210,2.0,4.0,95,0.19,,SKC,0.13,VWS V14.01,2013-06-11 03:48:00,
2013-06-10 23:49:00,57.5,56.1,29.97,SSW,205,0.0,4.0,95,0.19,,SKC,0.13,VWS V14.01,2013-06-11 03:49:00,
2013-06-10 23:50:00,57.5,56.1,29.97,SSW,202,0.0,4.0,95,0.19,,SKC,0.13,VWS V14.01,2013-06-11 03:50:00,
2013-06-10 23:53:00,57.5,56.1,29.97,WSW,240,0.0,3.0,95,0.18,,SKC,0.14,VWS V14.01,2013-06-11 03:53:00,
2013-06-10 23:55:00,57.5,56.1,29.97,WSW,243,5.0,5.0,95,0.17,,SKC,0.14,VWS V14.01,2013-06-11 03:55:00,
2013-06-10 23:58:00,57.5,56.1,29.97,WSW,237,0.0,5.0,95,0.17,,SKC,0.14,VWS V14.01,2013-06-11 03:58:00,